OE7AOT-2 Weather Reports


time (UTC)temp
C
wind
direction
speed
KPH
gust
KPH
rain 1hr
cm
rain 24hr
cm
rain mn
cm
humidity
%
barometer
mb
20260507181338 9 270 3.2 0.0 0.00 0.00 0.00 75 924.4
20260507181229 10 315 40.2 0.0 0.00 0.00 0.00 75 924.4
20260507181121 10 315 11.3 0.0 0.00 0.00 0.00 75 924.3
20260507181013 10 315 11.3 0.0 0.00 0.00 0.00 75 924.3
20260507180905 10 270 6.4 0.0 0.00 0.00 0.00 74 924.3
20260507180756 10 315 14.5 0.0 0.00 0.00 0.00 74 924.3
20260507180648 10 315 11.3 0.0 0.00 0.00 0.00 74 924.2
20260507180540 10 270 11.3 0.0 0.00 0.00 0.00 74 924.2
20260507180432 10 315 12.9 0.0 0.00 0.00 0.00 74 924.2
20260507180323 10 315 3.2 0.0 0.00 0.00 0.00 74 924.2
20260507180215 10 315 14.5 0.0 0.00 0.00 0.00 74 924.2
20260507180107 10 315 11.3 0.0 0.00 0.00 0.00 74 924.2
20260507175958 10 315 4.8 0.0 0.00 0.00 0.00 74 924.2
20260507175850 10 0 12.9 0.0 0.00 0.00 0.00 74 924.1
20260507175741 10 315 9.7 0.0 0.00 0.00 0.00 74 924.1
20260507175633 10 315 24.1 0.0 0.00 0.00 0.00 74 924.1
20260507175525 10 315 14.5 0.0 0.00 0.00 0.00 74 924.1
20260507175416 10 315 16.1 0.0 0.00 0.00 0.00 74 924.1
20260507175307 10 315 3.2 0.0 0.00 0.00 0.00 74 924.0
20260507175159 10 0 22.5 0.0 0.00 0.00 0.00 924.0
20260507175051 10 315 25.7 0.0 0.00 0.00 0.00 74 924.0
20260507174942 10 0 1.6 0.0 0.00 0.00 0.00 73 923.9
20260507174834 10 315 24.1 0.0 0.00 0.00 0.00 73 923.9
20260507174725 10 0 3.2 0.0 0.00 0.00 0.00 73 923.9
20260507174617 10 315 8.0 0.0 0.00 0.00 0.00 73 923.9
20260507174508 10 315 35.4 0.0 0.00 0.00 0.00 73 923.9
20260507174400 10 315 29.0 0.0 0.00 0.00 0.00 73 923.9
20260507174252 11 315 16.1 0.0 0.00 0.00 0.00 73 923.8
20260507174143 11 315 35.4 0.0 0.00 0.00 0.00 73 923.8
20260507174035 11 315 3.2 0.0 0.00 0.00 0.00 73 923.8
20260507173926 11 315 1.6 0.0 0.00 0.00 0.00 73 923.8
20260507173818 11 315 1.6 0.0 0.00 0.00 0.00 73 923.8
20260507173709 11 315 11.3 0.0 0.00 0.00 0.00 73 923.9
20260507173601 11 315 8.0 0.0 0.00 0.00 0.00 73 923.9
20260507173452 11 315 11.3 0.0 0.00 0.00 0.00 73 923.8
20260507173236 11 270 11.3 0.0 0.00 0.00 0.00 73 923.9
20260507173127 11 270 1.6 0.0 0.00 0.00 0.00 73 923.8
20260507172910 11 315 0.0 0.0 0.00 0.00 0.00 73 923.8
20260507172802 11 315 0.0 0.0 0.00 0.00 0.00 73 923.8
20260507172653 11 315 0.0 0.0 0.00 0.00 0.00 73 923.8
20260507172545 11 315 0.0 0.0 0.00 0.00 0.00 73 923.8
20260507172436 11 315 0.0 0.0 0.00 0.00 0.00 73 923.7
20260507172220 11 315 11.3 0.0 0.00 0.00 0.00 73 923.7
20260507172111 11 315 1.6 0.0 0.00 0.00 0.00 73 923.8
20260507172004 11 0 0.0 0.0 0.00 0.00 0.00 73 923.8
20260507171854 11 315 11.3 0.0 0.00 0.00 0.00 73 923.7
20260507171746 11 270 11.3 0.0 0.00 0.00 0.00 73 923.7
20260507171637 11 315 12.9 0.0 0.00 0.00 0.00 73 923.7
20260507171529 11 270 25.7 0.0 0.00 0.00 0.00 73 923.7
20260507171420 11 270 0.0 0.0 0.00 0.00 0.00 73 923.7
20260507171312 11 315 3.2 0.0 0.00 0.00 0.00 73 923.7
20260507171204 11 315 1.6 0.0 0.00 0.00 0.00 73 923.7
20260507171055 11 315 20.9 0.0 0.00 0.00 0.00 73 923.7
20260507170947 11 315 12.9 0.0 0.00 0.00 0.00 73 923.7
20260507170838 12 315 12.9 0.0 0.00 0.00 0.00 73 923.7
20260507170730 12 315 12.9 0.0 0.00 0.00 0.00 73 923.7
20260507170621 12 315 3.2 0.0 0.00 0.00 0.00 73 923.7
20260507170513 12 315 11.3 0.0 0.00 0.00 0.00 73 923.7
20260507170405 12 315 19.3 0.0 0.00 0.00 0.00 73 923.8
20260507170256 12 315 16.1 0.0 0.00 0.00 0.00 73 923.7
20260507170148 12 315 6.4 0.0 0.00 0.00 0.00 72 923.8
20260507170039 12 315 11.3 0.0 0.00 0.00 0.00 72 923.7
20260507165931 12 315 1.6 0.0 0.00 0.00 0.00 72 923.7
20260507165822 12 270 9.7 0.0 0.00 0.00 0.00 72 923.7
20260507165714 12 315 22.5 0.0 0.00 0.00 0.00 72 923.7
20260507165605 13 315 1.6 0.0 0.00 0.00 0.00 72 923.7
20260507165457 13 315 0.0 0.0 0.00 0.00 0.00 72 923.6
20260507165349 13 135 0.0 0.0 0.00 0.00 0.00 72 923.7
20260507165240 13 315 0.0 0.0 0.00 0.00 0.00 71 923.6
20260507165132 13 315 0.0 0.0 0.00 0.00 0.00 71 923.6
20260507165023 13 315 0.0 0.0 0.00 0.00 0.00 71 923.6
20260507164915 14 0 1.6 0.0 0.00 0.00 0.00 70 923.6
20260507164806 14 45 6.4 0.0 0.00 0.00 0.00 70 923.5
20260507164658 14 45 37.0 0.0 0.00 0.00 0.00 69 923.5
20260507164549 15 45 16.1 0.0 0.00 0.00 0.00 69 923.5
20260507164441 15 45 29.0 0.0 0.00 0.00 0.00 69 923.4
20260507164333 15 315 9.7 0.0 0.00 0.00 0.00 69 923.4
20260507164224 15 0 19.3 0.0 0.00 0.00 0.00 69 923.4
20260507164116 15 45 14.5 0.0 0.00 0.00 0.00 68 923.4
20260507164007 15 0 0.0 0.0 0.00 0.00 0.00 68 923.4
20260507163859 15 0 4.8 0.0 0.00 0.00 0.00 68 923.4
20260507163750 16 45 0.0 0.0 0.00 0.00 0.00 68 923.3
20260507163642 16 0 20.9 0.0 0.00 0.00 0.00 68 923.4
20260507163534 16 0 11.3 0.0 0.00 0.00 0.00 68 923.3
20260507163425 16 315 0.0 0.0 0.00 0.00 0.00 67 923.3
20260507163317 16 45 4.8 0.0 0.00 0.00 0.00 67 923.4
20260507163208 16 45 3.2 0.0 0.00 0.00 0.00 67 923.4
20260507163100 16 0 9.7 0.0 0.00 0.00 0.00 67 923.3
20260507162951 17 45 53.1 0.0 0.00 0.00 0.00 67 923.3
20260507162843 17 45 27.4 0.0 0.00 0.00 0.00 67 923.4
20260507162734 17 45 8.0 0.0 0.00 0.00 0.00 67 923.3
20260507162626 17 0 37.0 0.0 0.00 0.00 0.00 66 923.4
20260507162518 17 315 20.9 0.0 0.00 0.00 0.00 66 923.3
20260507162409 17 315 20.9 0.0 0.00 0.00 0.00 66 923.3
20260507162301 17 0 46.7 0.0 0.00 0.00 0.00 66 923.3
20260507162152 17 0 3.2 0.0 0.00 0.00 0.00 66 923.3
20260507161935 17 0 14.5 0.0 0.00 0.00 0.00 66 923.3
20260507161827 17 45 9.7 0.0 0.00 0.00 0.00 66 923.3
20260507161718 17 0 25.7 0.0 0.00 0.00 0.00 66 923.3
20260507161610 17 315 17.7 0.0 0.00 0.00 0.00 66 923.3
20260507161502 17 0 1.6 0.0 0.00 0.00 0.00 66 923.3
20260507161353 17 270 24.1 0.0 0.00 0.00 0.00 65 923.3
20260507161245 17 315 22.5 0.0 0.00 0.00 0.00 65 923.3
20260507161136 18 90 14.5 0.0 0.00 0.00 0.00 64 923.3
20260507161028 18 135 30.6 0.0 0.00 0.00 0.00 63 923.3
20260507160919 18 90 6.4 0.0 0.00 0.00 0.00 63 923.3
20260507160811 18 0 25.7 0.0 0.00 0.00 0.00 63 923.3
20260507160702 19 315 25.7 0.0 0.00 0.00 0.00 62 923.3
20260507160554 20 45 1.6 0.0 0.00 0.00 0.00 62 923.3
20260507160446 20 315 0.0 0.0 0.00 0.00 0.00 61 923.2
20260507160337 20 315 59.5 0.0 0.00 0.00 0.00 60 923.2
20260507160229 21 0 29.0 0.0 0.00 0.00 0.00 60 923.2
20260507160120 21 0 24.1 0.0 0.00 0.00 0.00 60 923.2
20260507160012 22 90 32.2 0.0 0.00 0.00 0.00 60 923.2
20260507155903 22 45 46.7 0.0 0.00 0.00 0.00 59 923.2
20260507155755 22 45 14.5 0.0 0.00 0.00 0.00 59 923.2
20260507155647 23 225 30.6 0.0 0.00 0.00 0.00 59 923.2
20260507155538 23 0 6.4 0.0 0.00 0.00 0.00 58 923.2
20260507155430 24 315 38.6 0.0 0.00 0.00 0.00 57 923.2
20260507155321 25 0 48.3 0.0 0.00 0.00 0.00 56 923.2
20260507155213 23 315 27.4 0.0 0.00 0.00 0.00 57 923.3
20260507155104 23 90 37.0 0.0 0.00 0.00 0.00 57 923.2
20260507154956 23 0 35.4 0.0 0.00 0.00 0.00 57 923.3
20260507154847 23 135 1.6 0.0 0.00 0.00 0.00 57 923.2
20260507154739 24 315 59.5 0.0 0.00 0.00 0.00 55 923.2
20260507154630 24 315 45.1 0.0 0.00 0.00 0.00 55 923.2
20260507154522 23 315 14.5 0.0 0.00 0.00 0.00 55 923.3
20260507154414 24 45 11.3 0.0 0.00 0.00 0.00 54 923.2
20260507154305 25 45 32.2 0.0 0.00 0.00 0.00 52 923.2
20260507154157 26 0 4.8 0.0 0.00 0.00 0.00 51 923.2
20260507154048 28 0 32.2 0.0 0.00 0.00 0.00 49 923.1
20260507153940 30 0 37.0 0.0 0.00 0.00 0.00 48 923.0
20260507153831 32 0 33.8 0.0 0.00 0.00 0.00 46 923.1
20260507153723 30 0 61.2 0.0 0.00 0.00 0.00 48 923.1
20260507153615 28 315 53.1 0.0 0.00 0.00 0.00 49 923.1
20260507153506 27 45 67.6 0.0 0.00 0.00 0.00 50 923.2
20260507153358 26 315 40.2 0.0 0.00 0.00 0.00 51 923.2
20260507153249 26 0 40.2 0.0 0.00 0.00 0.00 50 923.1
20260507153141 28 0 61.2 0.0 0.00 0.00 0.00 49 923.2
20260507153032 28 0 83.7 0.0 0.00 0.00 0.00 48 923.2
20260507152924 30 45 25.7 0.0 0.00 0.00 0.00 47 923.1
20260507152816 31 45 64.4 0.0 0.00 0.00 0.00 46 923.2
20260507152707 31 0 37.0 0.0 0.00 0.00 0.00 46 923.1
20260507152559 32 0 37.0 0.0 0.00 0.00 0.00 46 923.1
20260507152450 31 0 54.7 0.0 0.00 0.00 0.00 47 923.2
20260507152342 30 45 49.9 0.0 0.00 0.00 0.00 49 923.2
20260507152233 28 0 69.2 0.0 0.00 0.00 0.00 52 923.3
20260507152125 26 45 107.8 0.0 0.00 0.00 0.00 56 923.3
20260507152016 23 315 96.6 0.0 0.00 0.00 0.00 60 923.5
20260507151908 19 45 25.7 0.0 0.00 0.00 0.00 63 923.5
20260507151800 18 0 14.5 0.0 0.00 0.00 0.00 64 923.5
20260507151651 17 0 45.1 0.0 0.00 0.00 0.00 65 923.5
20260507151543 17 45 104.6 0.0 0.00 0.00 0.00 65 923.5
20260507151434 16 45 35.4 0.0 0.00 0.00 0.00 66 923.5
20260507151326 16 0 112.7 0.0 0.00 0.00 0.00 67 923.5
20260507151217 16 45 53.1 0.0 0.00 0.00 0.00 68 923.5
20260507151109 16 45 33.8 0.0 0.00 0.00 0.00 69 923.5
20260507151000 15 90 59.5 0.0 0.00 0.00 0.00 69 923.4
20260507150852 15 0 4.8 0.0 0.00 0.00 0.00 70 923.5
20260507150744 14 315 43.5 0.0 0.00 0.00 0.00 71 923.6
20260507150635 13 0 9.7 0.0 0.00 0.00 0.00 71 923.6
20260507150527 13 315 1.6 0.0 0.00 0.00 0.00 72 923.6
20260507150418 12 270 12.9 0.0 0.00 0.00 0.00 72 923.7
20260507150310 12 315 16.1 0.0 0.00 0.00 0.00 72 923.7
20260507150201 12 45 12.9 0.0 0.00 0.00 0.00 72 923.6
20260507150053 12 0 29.0 0.0 0.00 0.00 0.00 72 923.7
20260507145945 12 45 49.9 0.0 0.00 0.00 0.00 72 923.6
20260507145837 11 45 75.6 0.0 0.00 0.00 0.00 72 923.6
20260507145728 11 45 70.8 0.0 0.00 0.00 0.00 72 923.6
20260507145619 11 315 25.7 0.0 0.00 0.00 0.00 72 923.7
20260507145511 11 45 64.4 0.0 0.00 0.00 0.00 72 923.7
20260507145402 11 45 70.8 0.0 0.00 0.00 0.00 72 923.7
20260507145254 11 0 41.8 0.0 0.00 0.00 0.00 72 923.7
20260507145145 11 0 4.8 0.0 0.00 0.00 0.00 72 923.7
20260507145037 11 315 53.1 0.0 0.00 0.00 0.00 72 923.8
20260507144929 11 45 11.3 0.0 0.00 0.00 0.00 73 923.8
20260507144820 11 45 3.2 0.0 0.00 0.00 0.00 73 923.8
20260507144712 11 0 25.7 0.0 0.00 0.00 0.00 73 923.7
20260507144603 11 225 8.0 0.0 0.00 0.00 0.00 72 923.7
20260507144455 11 135 12.9 0.0 0.00 0.00 0.00 72 923.7
20260507144347 11 0 12.9 0.0 0.00 0.00 0.00 72 923.7
20260507144238 11 0 30.6 0.0 0.00 0.00 0.00 72 923.8
20260507144129 11 315 49.9 0.0 0.00 0.00 0.00 72 923.8
20260507144021 11 0 70.8 0.0 0.00 0.00 0.00 72 923.8
20260507143913 11 0 37.0 0.0 0.00 0.00 0.00 72 923.8
20260507143804 11 0 22.5 0.0 0.00 0.00 0.00 72 923.8
20260507143656 11 0 12.9 0.0 0.00 0.00 0.00 72 923.9
20260507143547 11 0 33.8 0.0 0.00 0.00 0.00 72 923.9
20260507143439 11 0 25.7 0.0 0.00 0.00 0.00 72 923.9
20260507143330 11 0 32.2 0.0 0.00 0.00 0.00 72 923.9
20260507143222 11 0 85.3 0.0 0.00 0.00 0.00 72 923.8
20260507143113 11 0 20.9 0.0 0.00 0.00 0.00 72 923.8
20260507143005 11 45 1.6 0.0 0.00 0.00 0.00 72 923.8
20260507142857 11 270 1.6 0.0 0.00 0.00 0.00 72 923.8
20260507142748 11 315 1.6 0.0 0.00 0.00 0.00 72 923.8
20260507142640 11 270 61.2 0.0 0.00 0.00 0.00 72 923.8
20260507142531 11 180 6.4 0.0 0.00 0.00 0.00 72 923.9
20260507142423 11 45 25.7 0.0 0.00 0.00 0.00 72 923.8
20260507142314 11 180 9.7 0.0 0.00 0.00 0.00 72 923.8
20260507142207 11 225 66.0 0.0 0.00 0.00 0.00 72 923.8
20260507142058 11 180 41.8 0.0 0.00 0.00 0.00 72 923.7
20260507141949 11 180 3.2 0.0 0.00 0.00 0.00 72 923.7
20260507141841 11 180 54.7 0.0 0.00 0.00 0.00 72 923.7
20260507141732 11 180 40.2 0.0 0.00 0.00 0.00 72 923.7
20260507141624 11 180 90.1 0.0 0.00 0.00 0.00 72 923.6
20260507141515 11 180 49.9 0.0 0.00 0.00 0.00 72 923.6
20260507141407 11 225 6.4 0.0 0.00 0.00 0.00 72 923.6
20260507141258 11 135 24.1 0.0 0.00 0.00 0.00 72 923.5
20260507141150 11 135 4.8 0.0 0.00 0.00 0.00 72 923.5
20260507140933 11 45 27.4 0.0 0.00 0.00 0.00 72 923.4
20260507140825 11 45 17.7 0.0 0.00 0.00 0.00 72 923.4
20260507140716 11 90 22.5 0.0 0.00 0.00 0.00 71 923.4
20260507140608 11 315 14.5 0.0 0.00 0.00 0.00 71 923.4
20260507140459 11 135 29.0 0.0 0.00 0.00 0.00 71 923.4
20260507140351 11 0 35.4 0.0 0.00 0.00 0.00 71 923.4
20260507140242 11 45 19.3 0.0 0.00 0.00 0.00 71 923.4
20260507140134 11 45 16.1 0.0 0.00 0.00 0.00 71 923.4
20260507140026 11 0 17.7 0.0 0.00 0.00 0.00 71 923.4
20260507135917 11 45 4.8 0.0 0.00 0.00 0.00 71 923.4
20260507135809 11 45 1.6 0.0 0.00 0.00 0.00 71 923.3
20260507135700 11 45 14.5 0.0 0.00 0.00 0.00 70 923.4
20260507135552 11 135 19.3 0.0 0.00 0.00 0.00 70 923.4
20260507135443 11 315 22.5 0.0 0.00 0.00 0.00 70 923.4
20260507135335 11 180 35.4 0.0 0.00 0.00 0.00 69 923.3
20260507135227 11 315 51.5 0.0 0.00 0.00 0.00 69 923.3
20260507135118 11 0 32.2 0.0 0.00 0.00 0.00 69 923.3
20260507135010 11 315 19.3 0.0 0.00 0.00 0.00 69 923.3
20260507134901 12 0 91.7 0.0 0.00 0.00 0.00 69 923.3
20260507134753 12 0 43.5 0.0 0.00 0.00 0.00 69 923.2
20260507134644 12 0 45.1 0.0 0.00 0.00 0.00 69 923.2
20260507134536 12 0 29.0 0.0 0.00 0.00 0.00 69 923.2
20260507134427 12 315 20.9 0.0 0.00 0.00 0.00 69 923.2
20260507134319 13 315 117.5 0.0 0.00 0.00 0.00 69 923.1
20260507134211 13 0 33.8 0.0 0.00 0.00 0.00 68 923.1
20260507134102 13 135 45.1 0.0 0.00 0.00 0.00 68 923.2
20260507133954 13 45 91.7 0.0 0.00 0.00 0.00 68 923.2
20260507133845 13 0 46.7 0.0 0.00 0.00 0.00 68 923.1
20260507133737 14 0 82.1 0.0 0.00 0.00 0.00 67 923.1
20260507133628 14 45 54.7 0.0 0.00 0.00 0.00 67 923.1
20260507133520 15 315 95.0 0.0 0.00 0.00 0.00 67 923.0
20260507133411 15 315 43.5 0.0 0.00 0.00 0.00 66 923.0
20260507133303 15 45 80.5 0.0 0.00 0.00 0.00 66 923.0
20260507133155 16 0 22.5 0.0 0.00 0.00 0.00 66 922.9
20260507133046 16 45 51.5 0.0 0.00 0.00 0.00 66 923.0
20260507132938 16 0 88.5 0.0 0.00 0.00 0.00 66 923.0
20260507132829 16 45 20.9 0.0 0.00 0.00 0.00 66 922.9
20260507132721 16 45 40.2 0.0 0.00 0.00 0.00 67 923.0
20260507132612 17 0 49.9 0.0 0.00 0.00 0.00 66 923.0
20260507132504 17 45 62.8 0.0 0.00 0.00 0.00 66 922.9
20260507132356 17 45 40.2 0.0 0.00 0.00 0.00 66 922.9
20260507132247 17 0 22.5 0.0 0.00 0.00 0.00 65 923.0
20260507132139 17 45 66.0 0.0 0.00 0.00 0.00 65 923.0
20260507132030 18 0 33.8 0.0 0.00 0.00 0.00 65 922.9
20260507131922 18 45 64.4 0.0 0.00 0.00 0.00 65 922.9
20260507131813 18 45 38.6 0.0 0.00 0.00 0.00 65 922.9
20260507131705 18 0 59.5 0.0 0.00 0.00 0.00 65 922.9
20260507131556 18 315 57.9 0.0 0.00 0.00 0.00 66 922.9
20260507131448 18 0 1.6 0.0 0.00 0.00 0.00 67 922.9
20260507131340 18 45 25.7 0.0 0.00 0.00 0.00 67 922.9
20260507131231 18 0 30.6 0.0 0.00 0.00 0.00 67 922.9
20260507131123 18 0 33.8 0.0 0.00 0.00 0.00 67 922.9
20260507131014 17 315 17.7 0.0 0.00 0.00 0.00 67 922.9
20260507130906 17 0 8.0 0.0 0.00 0.00 0.00 67 922.9
20260507130757 17 0 29.0 0.0 0.00 0.00 0.00 67 922.9
20260507130649 17 0 30.6 0.0 0.00 0.00 0.00 67 922.9
20260507130540 17 45 30.6 0.0 0.00 0.00 0.00 67 923.0
20260507130432 17 315 56.3 0.0 0.00 0.00 0.00 66 923.0
20260507130324 17 0 33.8 0.0 0.00 0.00 0.00 66 922.9
20260507130215 17 0 25.7 0.0 0.00 0.00 0.00 65 922.9
20260507130107 17 90 22.5 0.0 0.00 0.00 0.00 65 922.9
20260507125958 17 0 38.6 0.0 0.00 0.00 0.00 64 922.9
20260507125850 17 45 64.4 0.0 0.00 0.00 0.00 63 922.9
20260507125741 17 0 32.2 0.0 0.00 0.00 0.00 63 922.9
20260507125633 18 90 33.8 0.0 0.00 0.00 0.00 63 922.9
20260507125525 18 270 25.7 0.0 0.00 0.00 0.00 62 922.9
20260507125416 18 45 75.6 0.0 0.00 0.00 0.00 62 922.9
20260507125308 18 0 20.9 0.0 0.00 0.00 0.00 62 922.8
20260507125159 18 0 59.5 0.0 0.00 0.00 0.00 62 922.9
20260507125051 18 0 56.3 0.0 0.00 0.00 0.00 63 922.9
20260507124942 18 0 82.1 0.0 0.00 0.00 0.00 63 922.9
20260507124834 18 45 33.8 0.0 0.00 0.00 0.00 64 922.9
20260507124725 19 45 109.4 0.0 0.00 0.00 0.00 64 923.0
20260507124617 19 0 136.8 0.0 0.00 0.00 0.00 64 922.8
20260507124509 19 0 77.2 0.0 0.00 0.00 0.00 64 922.9
20260507124400 19 315 69.2 0.0 0.00 0.00 0.00 64 922.9
20260507124252 19 0 46.7 0.0 0.00 0.00 0.00 64 922.9
20260507124143 19 315 57.9 0.0 0.00 0.00 0.00 64 922.9
20260507124035 19 45 30.6 0.0 0.00 0.00 0.00 64 922.8
20260507123926 18 315 115.9 0.0 0.00 0.00 0.00 64 922.9
20260507123818 18 0 130.4 0.0 0.00 0.00 0.00 64 922.8
20260507123709 18 0 91.7 0.0 0.00 0.00 0.00 64 922.8
20260507123601 18 0 53.1 0.0 0.00 0.00 0.00 64 922.8
20260507123453 18 315 98.2 0.0 0.00 0.00 0.00 64 922.8
20260507123344 18 0 48.3 0.0 0.00 0.00 0.00 64 922.8
20260507123236 18 0 74.0 0.0 0.00 0.00 0.00 63 922.8
20260507123127 18 45 169.0 0.0 0.00 0.00 0.00 63 922.8
20260507123019 18 0 95.0 0.0 0.00 0.00 0.00 64 922.7
20260507122910 18 45 91.7 0.0 0.00 0.00 0.00 64 922.7
20260507122802 18 45 69.2 0.0 0.00 0.00 0.00 63 922.7
20260507122654 19 0 12.9 0.0 0.00 0.00 0.00 63 922.6
20260507122545 19 270 98.2 0.0 0.00 0.00 0.00 63 922.6
20260507122437 19 315 133.6 0.0 0.00 0.00 0.00 63 922.6
20260507122328 19 0 48.3 0.0 0.00 0.00 0.00 63 922.6
20260507122220 20 0 95.0 0.0 0.00 0.00 0.00 63 922.6
20260507122111 20 45 101.4 0.0 0.00 0.00 0.00 62 922.6
20260507122004 20 0 83.7 0.0 0.00 0.00 0.00 61 922.6
20260507121854 20 315 120.7 0.0 0.00 0.00 0.00 61 922.6
20260507121746 20 0 27.4 0.0 0.00 0.00 0.00 60 922.6
20260507121638 21 45 86.9 0.0 0.00 0.00 0.00 60 922.6
20260507121529 21 45 25.7 0.0 0.00 0.00 0.00 59 922.5
20260507121421 22 0 38.6 0.0 0.00 0.00 0.00 58 922.6
20260507121312 22 0 109.4 0.0 0.00 0.00 0.00 58 922.5
20260507121204 23 45 72.4 0.0 0.00 0.00 0.00 57 922.4
20260507121055 23 45 85.3 0.0 0.00 0.00 0.00 57 922.4
20260507120947 25 0 57.9 0.0 0.00 0.00 0.00 57 922.4
20260507120838 25 45 64.4 0.0 0.00 0.00 0.00 56 922.4
20260507120730 26 180 22.5 0.0 0.00 0.00 0.00 55 922.3
20260507120622 27 90 30.6 0.0 0.00 0.00 0.00 54 922.3
20260507120513 27 0 45.1 0.0 0.00 0.00 0.00 52 922.3
20260507120405 28 45 125.5 0.0 0.00 0.00 0.00 50 922.2
20260507120256 30 45 59.5 0.0 0.00 0.00 0.00 49 922.2
20260507120148 31 0 70.8 0.0 0.00 0.00 0.00 47 922.2
20260507120039 33 315 101.4 0.0 0.00 0.00 0.00 46 922.1
20260507115931 35 0 70.8 0.0 0.00 0.00 0.00 45 922.1
20260507115823 -12 0 72.4 0.0 0.00 0.00 0.00 43 922.2
20260507115714 37 0 59.5 0.0 0.00 0.00 0.00 43 922.2
20260507115606 37 315 32.2 0.0 0.00 0.00 0.00 44 922.3
20260507115457 36 315 48.3 0.0 0.00 0.00 0.00 45 922.3
20260507115349 35 45 69.2 0.0 0.00 0.00 0.00 46 922.4
20260507115240 32 315 112.7 0.0 0.00 0.00 0.00 49 922.4
20260507115132 31 315 106.2 0.0 0.00 0.00 0.00 50 922.4
20260507115023 28 0 38.6 0.0 0.00 0.00 0.00 53 922.5
20260507114915 26 135 45.1 0.0 0.00 0.00 0.00 55 922.5
20260507114807 25 0 96.6 0.0 0.00 0.00 0.00 56 922.6
20260507114658 25 45 143.2 0.0 0.00 0.00 0.00 56 922.5
20260507114550 23 0 59.5 0.0 0.00 0.00 0.00 59 922.5
20260507114442 23 45 77.2 0.0 0.00 0.00 0.00 59 922.6
20260507114333 22 45 24.1 0.0 0.00 0.00 0.00 61 922.7
20260507114224 20 225 56.3 0.0 0.00 0.00 0.00 63 922.7
20260507114116 17 270 51.5 0.0 0.00 0.00 0.00 64 922.8
20260507114008 16 45 38.6 0.0 0.00 0.00 0.00 65 922.8
20260507113859 16 315 74.0 0.0 0.00 0.00 0.00 66 922.8
20260507113751 15 0 40.2 0.0 0.00 0.00 0.00 66 922.8
20260507113642 14 0 77.2 0.0 0.00 0.00 0.00 67 922.9
20260507113534 14 45 75.6 0.0 0.00 0.00 0.00 67 922.8
20260507113425 13 270 62.8 0.0 0.00 0.00 0.00 68 922.9
20260507113317 13 45 61.2 0.0 0.00 0.00 0.00 68 922.9
20260507113208 13 315 62.8 0.0 0.00 0.00 0.00 69 922.9
20260507113100 13 0 46.7 0.0 0.00 0.00 0.00 70 922.9
20260507112951 12 0 101.4 0.0 0.00 0.00 0.00 70 922.9
20260507112843 12 0 57.9 0.0 0.00 0.00 0.00 70 922.9
20260507112735 12 0 154.5 0.0 0.00 0.00 0.00 71 922.9
20260507112626 12 0 51.5 0.0 0.00 0.00 0.00 71 922.9
20260507112518 12 0 45.1 0.0 0.00 0.00 0.00 71 923.0
20260507112409 12 0 14.5 0.0 0.00 0.00 0.00 71 923.0
20260507112301 12 315 80.5 0.0 0.00 0.00 0.00 71 923.0
20260507112152 12 45 20.9 0.0 0.00 0.00 0.00 71 923.0
20260507112044 11 90 29.0 0.0 0.00 0.00 0.00 71 923.0
20260507111936 11 90 33.8 0.0 0.00 0.00 0.00 71 923.0
20260507111827 11 135 70.8 0.0 0.00 0.00 0.00 71 923.0
20260507111719 11 0 62.8 0.0 0.00 0.00 0.00 71 922.9
20260507111610 11 180 43.5 0.0 0.00 0.00 0.00 71 923.0
20260507111503 11 0 61.2 0.0 0.00 0.00 0.00 71 923.0
20260507111353 11 315 37.0 0.0 0.00 0.00 0.00 70 922.9
20260507111245 11 135 49.9 0.0 0.00 0.00 0.00 70 923.0
20260507111136 11 315 101.4 0.0 0.00 0.00 0.00 70 923.0
20260507111028 11 0 74.0 0.0 0.00 0.00 0.00 70 923.0
20260507110920 11 0 45.1 0.0 0.00 0.00 0.00 70 922.9
20260507110811 12 45 33.8 0.0 0.00 0.00 0.00 70 923.0
20260507110703 12 315 83.7 0.0 0.00 0.00 0.00 69 923.0
20260507110554 12 0 98.2 0.0 0.00 0.00 0.00 69 922.9
20260507110446 12 0 91.7 0.0 0.00 0.00 0.00 69 923.0
20260507110337 12 315 48.3 0.0 0.00 0.00 0.00 69 923.0
20260507110229 12 315 41.8 0.0 0.00 0.00 0.00 68 923.1
20260507110120 12 90 80.5 0.0 0.00 0.00 0.00 68 923.0
20260507110012 12 45 49.9 0.0 0.00 0.00 0.00 68 922.9
20260507105904 12 0 56.3 0.0 0.00 0.00 0.00 68 923.0
20260507105755 12 45 75.6 0.0 0.00 0.00 0.00 68 922.9
20260507105647 12 0 67.6 0.0 0.00 0.00 0.00 68 922.9
20260507105538 12 90 62.8 0.0 0.00 0.00 0.00 68 922.9
20260507105430 13 0 107.8 0.0 0.00 0.00 0.00 68 922.9
20260507105321 13 315 67.6 0.0 0.00 0.00 0.00 68 922.8
20260507105213 13 45 20.9 0.0 0.00 0.00 0.00 68 922.9
20260507105105 13 0 43.5 0.0 0.00 0.00 0.00 68 922.9
20260507104956 13 90 35.4 0.0 0.00 0.00 0.00 68 922.9
20260507104848 12 0 67.6 0.0 0.00 0.00 0.00 68 923.0
20260507104739 12 135 32.2 0.0 0.00 0.00 0.00 68 923.0
20260507104631 12 315 56.3 0.0 0.00 0.00 0.00 68 923.0
20260507104522 12 315 56.3 0.0 0.00 0.00 0.00 67 923.0
20260507104414 12 315 90.1 0.0 0.00 0.00 0.00 67 923.0
20260507104305 12 45 61.2 0.0 0.00 0.00 0.00 67 922.9
20260507104158 13 180 38.6 0.0 0.00 0.00 0.00 67 922.9
20260507104049 13 315 88.5 0.0 0.00 0.00 0.00 67 923.0
20260507103940 13 0 88.5 0.0 0.00 0.00 0.00 67 922.9
20260507103832 13 45 49.9 0.0 0.00 0.00 0.00 66 922.9
20260507103723 13 45 69.2 0.0 0.00 0.00 0.00 66 922.9
20260507103615 14 315 19.3 0.0 0.00 0.00 0.00 66 923.0
20260507103506 14 0 98.2 0.0 0.00 0.00 0.00 66 923.0
20260507103358 14 0 33.8 0.0 0.00 0.00 0.00 67 922.9
20260507103249 15 90 43.5 0.0 0.00 0.00 0.00 67 922.9
20260507103141 15 90 27.4 0.0 0.00 0.00 0.00 67 922.9
20260507103033 15 135 61.2 0.0 0.00 0.00 0.00 68 922.8
20260507102924 15 315 19.3 0.0 0.00 0.00 0.00 68 922.9
20260507102816 15 225 29.0 0.0 0.00 0.00 0.00 68 922.9
20260507102707 15 270 46.7 0.0 0.00 0.00 0.00 68 922.8
20260507102559 15 315 120.7 0.0 0.00 0.00 0.00 68 922.8
20260507102450 15 45 91.7 0.0 0.00 0.00 0.00 68 922.8
20260507102342 16 0 19.3 0.0 0.00 0.00 0.00 68 922.7
20260507102234 16 0 72.4 0.0 0.00 0.00 0.00 68 922.8
20260507102125 16 0 64.4 0.0 0.00 0.00 0.00 68 922.8
20260507102017 16 315 59.5 0.0 0.00 0.00 0.00 68 922.8
20260507101908 16 45 141.6 0.0 0.00 0.00 0.00 68 922.8
20260507101800 16 0 27.4 0.0 0.00 0.00 0.00 68 922.7
20260507101651 16 225 130.4 0.0 0.00 0.00 0.00 68 922.8
20260507101543 16 45 29.0 0.0 0.00 0.00 0.00 68 922.8
20260507101434 16 45 95.0 0.0 0.00 0.00 0.00 68 922.8
20260507101326 16 45 30.6 0.0 0.00 0.00 0.00 68 922.7
20260507101218 16 90 85.3 0.0 0.00 0.00 0.00 68 922.8
20260507101109 15 45 19.3 0.0 0.00 0.00 0.00 68 922.8
20260507101001 15 90 57.9 0.0 0.00 0.00 0.00 68 922.7
20260507100852 15 135 53.1 0.0 0.00 0.00 0.00 68 922.8
20260507100744 15 0 95.0 0.0 0.00 0.00 0.00 68 922.8
20260507100635 15 45 14.5 0.0 0.00 0.00 0.00 68 922.8
20260507100527 15 90 70.8 0.0 0.00 0.00 0.00 68 922.8
20260507100418 15 315 62.8 0.0 0.00 0.00 0.00 68 922.8
20260507100310 15 45 56.3 0.0 0.00 0.00 0.00 67 922.8
20260507100202 16 315 130.4 0.0 0.00 0.00 0.00 67 922.7
20260507100053 16 45 70.8 0.0 0.00 0.00 0.00 67 922.6
20260507095945 16 315 53.1 0.0 0.00 0.00 0.00 67 922.7
20260507095836 16 45 43.5 0.0 0.00 0.00 0.00 67 922.7
20260507095728 16 315 74.0 0.0 0.00 0.00 0.00 67 922.7
20260507095619 16 90 30.6 0.0 0.00 0.00 0.00 67 922.7
20260507095511 16 315 57.9 0.0 0.00 0.00 0.00 66 922.7
20260507095403 16 45 154.5 0.0 0.00 0.00 0.00 66 922.7
20260507095254 16 0 38.6 0.0 0.00 0.00 0.00 66 922.5
20260507095146 16 90 115.9 0.0 0.00 0.00 0.00 65 922.6
20260507095037 16 0 57.9 0.0 0.00 0.00 0.00 65 922.5
20260507094929 17 45 69.2 0.0 0.00 0.00 0.00 65 922.6
20260507094820 17 315 46.7 0.0 0.00 0.00 0.00 64 922.6
20260507094712 18 135 72.4 0.0 0.00 0.00 0.00 64 922.6
20260507094603 18 0 91.7 0.0 0.00 0.00 0.00 63 922.5
20260507094455 18 0 38.6 0.0 0.00 0.00 0.00 63 922.5
20260507094347 19 45 25.7 0.0 0.00 0.00 0.00 62 922.5
20260507094238 20 315 12.9 0.0 0.00 0.00 0.00 61 922.5
20260507094130 21 180 136.8 0.0 0.00 0.00 0.00 60 922.5
20260507094021 21 0 20.9 0.0 0.00 0.00 0.00 59 922.4
20260507093913 22 315 37.0 0.0 0.00 0.00 0.00 58 922.5
20260507093804 23 0 59.5 0.0 0.00 0.00 0.00 57 922.5
20260507093656 24 315 61.2 0.0 0.00 0.00 0.00 56 922.4
20260507093547 26 45 99.8 0.0 0.00 0.00 0.00 55 922.3
20260507093439 27 45 107.8 0.0 0.00 0.00 0.00 54 922.3
20260507093331 28 0 69.2 0.0 0.00 0.00 0.00 54 922.2
20260507093222 29 315 109.4 0.0 0.00 0.00 0.00 55 922.2
20260507093114 30 0 82.1 0.0 0.00 0.00 0.00 55 922.1
20260507093005 30 135 74.0 0.0 0.00 0.00 0.00 55 922.1
20260507092857 30 45 140.0 0.0 0.00 0.00 0.00 55 922.0
20260507092748 30 45 91.7 0.0 0.00 0.00 0.00 55 922.0
20260507092640 29 45 197.9 0.0 0.00 0.00 0.00 56 922.1
20260507092532 28 0 85.3 0.0 0.00 0.00 0.00 56 922.0
20260507092423 28 0 46.7 0.0 0.00 0.00 0.00 56 922.1
20260507092315 28 0 64.4 0.0 0.00 0.00 0.00 58 922.1
20260507092206 27 0 70.8 0.0 0.00 0.00 0.00 58 922.2
20260507092058 27 0 122.3 0.0 0.00 0.00 0.00 58 922.1
20260507091949 26 0 117.5 0.0 0.00 0.00 0.00 59 922.1
20260507091841 26 0 114.3 0.0 0.00 0.00 0.00 59 922.1
20260507091732 26 0 29.0 0.0 0.00 0.00 0.00 59 922.1
20260507091624 26 225 101.4 0.0 0.00 0.00 0.00 58 922.1
20260507091516 26 90 35.4 0.0 0.00 0.00 0.00 58 922.0
20260507091407 26 315 144.8 0.0 0.00 0.00 0.00 58 922.1
20260507091259 26 135 132.0 0.0 0.00 0.00 0.00 59 922.0
20260507091150 26 45 62.8 0.0 0.00 0.00 0.00 59 922.0
20260507091042 26 45 70.8 0.0 0.00 0.00 0.00 60 922.1
20260507090933 26 45 64.4 0.0 0.00 0.00 0.00 60 922.1
20260507090825 26 45 115.9 0.0 0.00 0.00 0.00 60 922.0
20260507090716 26 0 70.8 0.0 0.00 0.00 0.00 59 922.0
20260507090608 26 90 82.1 0.0 0.00 0.00 0.00 60 922.0
20260507090500 26 0 40.2 0.0 0.00 0.00 0.00 61 922.0
20260507090351 25 315 48.3 0.0 0.00 0.00 0.00 62 922.1
20260507090243 25 0 56.3 0.0 0.00 0.00 0.00 62 922.0
20260507090134 25 315 82.1 0.0 0.00 0.00 0.00 63 922.1
20260507090026 24 0 82.1 0.0 0.00 0.00 0.00 63 922.0
20260507085917 24 0 98.2 0.0 0.00 0.00 0.00 63 922.1
20260507085809 23 45 33.8 0.0 0.00 0.00 0.00 64 922.1
20260507085700 23 90 125.5 0.0 0.00 0.00 0.00 64 922.1
20260507085552 23 45 41.8 0.0 0.00 0.00 0.00 64 922.1
20260507085444 23 180 125.5 0.0 0.00 0.00 0.00 65 922.2
20260507085335 22 45 103.0 0.0 0.00 0.00 0.00 65 922.2
20260507085227 22 45 128.7 0.0 0.00 0.00 0.00 64 922.2
20260507085118 22 45 53.1 0.0 0.00 0.00 0.00 65 922.2
20260507085010 22 90 64.4 0.0 0.00 0.00 0.00 65 922.2
20260507084901 21 0 112.7 0.0 0.00 0.00 0.00 65 922.3
20260507084753 21 0 37.0 0.0 0.00 0.00 0.00 65 922.2
20260507084645 21 270 122.3 0.0 0.00 0.00 0.00 66 922.2
20260507084536 21 45 109.4 0.0 0.00 0.00 0.00 66 922.3
20260507084428 20 0 106.2 0.0 0.00 0.00 0.00 68 922.2
20260507084319 20 45 112.7 0.0 0.00 0.00 0.00 69 922.2
20260507084211 19 45 83.7 0.0 0.00 0.00 0.00 69 922.1
20260507084102 18 0 98.2 0.0 0.00 0.00 0.00 68 922.3
20260507083954 18 45 103.0 0.0 0.00 0.00 0.00 66 922.3
20260507083845 18 0 127.1 0.0 0.00 0.00 0.00 66 922.4
20260507083738 18 0 51.5 0.0 0.00 0.00 0.00 65 922.3
20260507083629 18 315 40.2 0.0 0.00 0.00 0.00 65 922.3
20260507083520 19 0 138.4 0.0 0.00 0.00 0.00 65 922.3
20260507083412 19 45 80.5 0.0 0.00 0.00 0.00 65 922.2
20260507083303 19 45 88.5 0.0 0.00 0.00 0.00 66 922.2
20260507083155 19 315 54.7 0.0 0.00 0.00 0.00 67 922.3
20260507083047 19 90 83.7 0.0 0.00 0.00 0.00 68 922.2
20260507082938 19 45 30.6 0.0 0.00 0.00 0.00 70 922.1
20260507082829 18 315 123.9 0.0 0.00 0.00 0.00 71 922.2
20260507082721 17 0 67.6 0.0 0.00 0.00 0.00 70 922.2
20260507082613 17 45 56.3 0.0 0.00 0.00 0.00 69 922.2
20260507082504 17 0 78.9 0.0 0.00 0.00 0.00 69 922.2
20260507082356 17 0 111.0 0.0 0.00 0.00 0.00 69 922.2
20260507082247 17 0 112.7 0.0 0.00 0.00 0.00 69 922.1
20260507082139 17 0 24.1 0.0 0.00 0.00 0.00 69 922.1
20260507082030 17 0 30.6 0.0 0.00 0.00 0.00 69 922.2
20260507081922 17 180 74.0 0.0 0.00 0.00 0.00 69 922.2
20260507081813 17 0 133.6 0.0 0.00 0.00 0.00 70 922.2
20260507081705 17 45 85.3 0.0 0.00 0.00 0.00 69 922.2
20260507081557 17 45 40.2 0.0 0.00 0.00 0.00 69 922.2
20260507081448 17 135 46.7 0.0 0.00 0.00 0.00 69 922.2
20260507081340 17 135 25.7 0.0 0.00 0.00 0.00 69 922.2
20260507081231 17 315 85.3 0.0 0.00 0.00 0.00 68 922.2
20260507081123 17 315 91.7 0.0 0.00 0.00 0.00 68 922.1
20260507081014 17 45 19.3 0.0 0.00 0.00 0.00 68 922.1
20260507080906 17 225 75.6 0.0 0.00 0.00 0.00 68 922.2
20260507080758 17 0 53.1 0.0 0.00 0.00 0.00 68 922.2
20260507080649 17 315 103.0 0.0 0.00 0.00 0.00 68 922.2
20260507080541 17 315 43.5 0.0 0.00 0.00 0.00 68 922.2
20260507080432 17 90 85.3 0.0 0.00 0.00 0.00 68 922.2
20260507080324 17 270 25.7 0.0 0.00 0.00 0.00 69 922.1
20260507080215 17 45 112.7 0.0 0.00 0.00 0.00 69 922.1
20260507080107 17 0 144.8 0.0 0.00 0.00 0.00 70 922.1
20260507075958 17 45 25.7 0.0 0.00 0.00 0.00 70 922.2
20260507075850 17 90 69.2 0.0 0.00 0.00 0.00 71 922.1
20260507075742 17 315 46.7 0.0 0.00 0.00 0.00 71 922.1
20260507075633 17 315 41.8 0.0 0.00 0.00 0.00 72 922.1
20260507075525 16 0 56.3 0.0 0.00 0.00 0.00 72 922.1
20260507075416 16 0 72.4 0.0 0.00 0.00 0.00 71 922.1
20260507075308 16 315 46.7 0.0 0.00 0.00 0.00 71 922.1
20260507075159 16 180 49.9 0.0 0.00 0.00 0.00 71 922.1
20260507075051 16 45 25.7 0.0 0.00 0.00 0.00 71 922.1
20260507074942 16 315 86.9 0.0 0.00 0.00 0.00 70 922.1
20260507074834 15 0 43.5 0.0 0.00 0.00 0.00 70 922.1
20260507074726 15 90 82.1 0.0 0.00 0.00 0.00 70 922.2
20260507074618 15 315 72.4 0.0 0.00 0.00 0.00 70 922.1
20260507074509 15 0 86.9 0.0 0.00 0.00 0.00 70 922.2
20260507074400 15 0 122.3 0.0 0.00 0.00 0.00 71 922.1
20260507074252 15 0 67.6 0.0 0.00 0.00 0.00 71 922.1
20260507074143 15 45 48.3 0.0 0.00 0.00 0.00 72 922.2
20260507074035 15 0 90.1 0.0 0.00 0.00 0.00 72 922.1
20260507073927 15 315 90.1 0.0 0.00 0.00 0.00 72 922.1
20260507073818 15 0 53.1 0.0 0.00 0.00 0.00 72 922.1
20260507073710 15 90 59.5 0.0 0.00 0.00 0.00 73 922.1
20260507073601 15 45 35.4 0.0 0.00 0.00 0.00 72 922.1
20260507073453 14 270 43.5 0.0 0.00 0.00 0.00 72 922.2
20260507073344 13 45 120.7 0.0 0.00 0.00 0.00 72 922.2
20260507073236 13 0 20.9 0.0 0.00 0.00 0.00 72 922.2
20260507073127 13 180 138.4 0.0 0.00 0.00 0.00 72 922.2
20260507073019 13 0 99.8 0.0 0.00 0.00 0.00 72 922.2
20260507072911 12 0 66.0 0.0 0.00 0.00 0.00 73 922.2
20260507072802 12 45 77.2 0.0 0.00 0.00 0.00 73 922.2
20260507072654 12 45 133.6 0.0 0.00 0.00 0.00 73 922.2
20260507072545 12 0 57.9 0.0 0.00 0.00 0.00 73 922.1
20260507072438 12 0 80.5 0.0 0.00 0.00 0.00 73 922.2
20260507072328 12 0 83.7 0.0 0.00 0.00 0.00 72 922.1
20260507072220 11 90 77.2 0.0 0.00 0.00 0.00 72 922.2
20260507072111 11 0 180.2 0.0 0.00 0.00 0.00 72 922.2
20260507072003 11 0 101.4 0.0 0.00 0.00 0.00 72 922.0
20260507071855 11 45 59.5 0.0 0.00 0.00 0.00 72 922.1
20260507071746 11 0 32.2 0.0 0.00 0.00 0.00 72 922.1
20260507071638 11 315 83.7 0.0 0.00 0.00 0.00 72 922.2
20260507071529 11 0 169.0 0.0 0.00 0.00 0.00 72 922.1
20260507071421 11 0 112.7 0.0 0.00 0.00 0.00 72 922.0
20260507071312 11 45 57.9 0.0 0.00 0.00 0.00 72 922.0
20260507071204 11 45 136.8 0.0 0.00 0.00 0.00 72 922.1
20260507071056 11 90 114.3 0.0 0.00 0.00 0.00 72 922.0
20260507070947 11 45 90.1 0.0 0.00 0.00 0.00 72 922.0
20260507070839 11 315 98.2 0.0 0.00 0.00 0.00 73 922.0
20260507070730 11 45 56.3 0.0 0.00 0.00 0.00 73 922.0
20260507070622 12 90 91.7 0.0 0.00 0.00 0.00 73 922.0
20260507070513 12 0 101.4 0.0 0.00 0.00 0.00 73 922.0
20260507070405 12 0 127.1 0.0 0.00 0.00 0.00 73 921.9
20260507070256 12 0 66.0 0.0 0.00 0.00 0.00 72 921.9
20260507070148 12 90 72.4 0.0 0.00 0.00 0.00 72 922.0
20260507070040 12 0 104.6 0.0 0.00 0.00 0.00 72 921.9
20260507065931 12 0 59.5 0.0 0.00 0.00 0.00 72 921.9
20260507065823 12 45 85.3 0.0 0.00 0.00 0.00 72 922.0
20260507065714 12 45 62.8 0.0 0.00 0.00 0.00 72 922.0
20260507065606 12 315 48.3 0.0 0.00 0.00 0.00 72 921.9
20260507065457 12 0 114.3 0.0 0.00 0.00 0.00 72 922.0
20260507065349 12 0 72.4 0.0 0.00 0.00 0.00 72 922.0
20260507065240 12 0 107.8 0.0 0.00 0.00 0.00 72 922.0
20260507065132 12 45 122.3 0.0 0.00 0.00 0.00 72 921.9
20260507065024 12 0 54.7 0.0 0.00 0.00 0.00 72 921.9
20260507064915 12 315 112.7 0.0 0.00 0.00 0.00 73 921.9
20260507064807 12 0 114.3 0.0 0.00 0.00 0.00 72 921.9
20260507064658 12 45 154.5 0.0 0.00 0.00 0.00 73 921.9
20260507064550 12 45 101.4 0.0 0.00 0.00 0.00 73 922.0
20260507064441 12 45 48.3 0.0 0.00 0.00 0.00 73 921.9
20260507064333 12 0 103.0 0.0 0.00 0.00 0.00 73 922.0
20260507064225 12 45 59.5 0.0 0.00 0.00 0.00 73 921.9
20260507064116 12 315 93.3 0.0 0.00 0.00 0.00 73 921.9
20260507064008 12 0 53.1 0.0 0.00 0.00 0.00 73 922.0
20260507063859 12 270 49.9 0.0 0.00 0.00 0.00 73 922.0
20260507063751 12 0 112.7 0.0 0.00 0.00 0.00 74 921.9
20260507063642 12 90 103.0 0.0 0.00 0.00 0.00 74 921.9
20260507063534 12 0 111.0 0.0 0.00 0.00 0.00 74 921.9
20260507063425 12 45 88.5 0.0 0.00 0.00 0.00 73 921.9
20260507063317 12 0 70.8 0.0 0.00 0.00 0.00 73 921.9
20260507063209 12 45 83.7 0.0 0.00 0.00 0.00 73 921.9
20260507063100 12 0 72.4 0.0 0.00 0.00 0.00 73 921.9
20260507062952 12 45 46.7 0.0 0.00 0.00 0.00 73 921.9
20260507062843 12 0 41.8 0.0 0.00 0.00 0.00 73 921.9
20260507062735 12 90 45.1 0.0 0.00 0.00 0.00 73 921.9
20260507062626 12 315 156.1 0.0 0.00 0.00 0.00 73 921.9
20260507062518 12 315 132.0 0.0 0.00 0.00 0.00 74 921.8
20260507062410 12 315 75.6 0.0 0.00 0.00 0.00 74 921.9
20260507062301 12 45 61.2 0.0 0.00 0.00 0.00 74 921.8
20260507062153 12 315 51.5 0.0 0.00 0.00 0.00 74 921.9
20260507062044 12 45 82.1 0.0 0.00 0.00 0.00 74 921.9
20260507061936 11 0 67.6 0.0 0.00 0.00 0.00 74 921.9
20260507061827 11 90 151.3 0.0 0.00 0.00 0.00 74 921.9
20260507061719 11 0 56.3 0.0 0.00 0.00 0.00 74 921.9
20260507061610 11 315 20.9 0.0 0.00 0.00 0.00 74 921.9
20260507061502 11 90 135.2 0.0 0.00 0.00 0.00 74 921.9
20260507061353 11 0 123.9 0.0 0.00 0.00 0.00 74 921.9
20260507061245 11 0 30.6 0.0 0.00 0.00 0.00 74 921.9
20260507061137 11 45 75.6 0.0 0.00 0.00 0.00 74 921.9
20260507061028 11 0 86.9 0.0 0.00 0.00 0.00 74 921.9
20260507060920 11 45 56.3 0.0 0.00 0.00 0.00 74 921.8
20260507060811 11 270 114.3 0.0 0.00 0.00 0.00 74 921.8
20260507060703 11 135 90.1 0.0 0.00 0.00 0.00 74 921.7
20260507060555 11 45 64.4 0.0 0.00 0.00 0.00 74 921.8
20260507060446 11 45 59.5 0.0 0.00 0.00 0.00 74 921.8
20260507060338 11 45 70.8 0.0 0.00 0.00 0.00 74 921.7
20260507060229 11 0 37.0 0.0 0.00 0.00 0.00 74 921.8
20260507060121 11 315 122.3 0.0 0.00 0.00 0.00 74 921.8
20260507060012 11 315 20.9 0.0 0.00 0.00 0.00 74 921.8
20260507055904 11 0 86.9 0.0 0.00 0.00 0.00 74 921.8
20260507055755 11 0 41.8 0.0 0.00 0.00 0.00 74 921.8
20260507055647 11 0 30.6 0.0 0.00 0.00 0.00 74 921.8
20260507055538 11 315 67.6 0.0 0.00 0.00 0.00 74 921.8
20260507055430 11 315 53.1 0.0 0.00 0.00 0.00 74 921.7
20260507055322 11 45 78.9 0.0 0.00 0.00 0.00 74 921.7
20260507055213 11 0 66.0 0.0 0.00 0.00 0.00 74 921.7
20260507055105 11 0 4.8 0.0 0.00 0.00 0.00 74 921.7
20260507054956 11 90 25.7 0.0 0.00 0.00 0.00 74 921.7
20260507054848 11 315 69.2 0.0 0.00 0.00 0.00 74 921.7
20260507054739 11 45 83.7 0.0 0.00 0.00 0.00 74 921.6
20260507054631 11 0 80.5 0.0 0.00 0.00 0.00 74 921.6
20260507054522 11 315 54.7 0.0 0.00 0.00 0.00 74 921.6
20260507054414 11 315 66.0 0.0 0.00 0.00 0.00 74 921.5
20260507054306 11 0 20.9 0.0 0.00 0.00 0.00 74 921.6
20260507054158 11 90 86.9 0.0 0.00 0.00 0.00 74 921.5
20260507054049 11 0 117.5 0.0 0.00 0.00 0.00 74 921.4
20260507053940 11 45 91.7 0.0 0.00 0.00 0.00 74 921.5
20260507053832 11 0 56.3 0.0 0.00 0.00 0.00 74 921.4
20260507053723 11 45 30.6 0.0 0.00 0.00 0.00 74 921.5
20260507053615 11 90 127.1 0.0 0.00 0.00 0.00 75 921.5
20260507053507 11 45 130.4 0.0 0.00 0.00 0.00 75 921.5
20260507053358 11 45 80.5 0.0 0.00 0.00 0.00 75 921.5
20260507053250 11 0 77.2 0.0 0.00 0.00 0.00 75 921.5
20260507053141 11 45 49.9 0.0 0.00 0.00 0.00 75 921.4
20260507053033 11 315 33.8 0.0 0.00 0.00 0.00 75 921.5
20260507052924 11 315 96.6 0.0 0.00 0.00 0.00 75 921.5
20260507052816 11 0 82.1 0.0 0.00 0.00 0.00 75 921.4
20260507052707 11 45 78.9 0.0 0.00 0.00 0.00 75 921.4
20260507052559 10 45 32.2 0.0 0.00 0.00 0.00 75 921.4
20260507052451 10 45 66.0 0.0 0.00 0.00 0.00 75 921.4
20260507052342 10 45 120.7 0.0 0.00 0.00 0.00 75 921.4
20260507052234 10 45 91.7 0.0 0.00 0.00 0.00 75 921.2
20260507052125 10 0 143.2 0.0 0.00 0.00 0.00 75 921.3
20260507052017 10 315 49.9 0.0 0.00 0.00 0.00 75 921.3
20260507051908 10 225 72.4 0.0 0.00 0.00 0.00 75 921.3
20260507051800 10 0 72.4 0.0 0.00 0.00 0.00 75 921.2
20260507051652 10 45 90.1 0.0 0.00 0.00 0.00 75 921.4
20260507051543 10 45 11.3 0.0 0.00 0.00 0.00 75 921.3
20260507051435 10 315 85.3 0.0 0.00 0.00 0.00 75 921.3
20260507051326 10 270 78.9 0.0 0.00 0.00 0.00 75 921.2
20260507051218 10 0 41.8 0.0 0.00 0.00 0.00 75 921.3
20260507051109 10 0 125.5 0.0 0.00 0.00 0.00 75 921.3
20260507051001 10 45 64.4 0.0 0.00 0.00 0.00 76 921.3
20260507050852 10 0 112.7 0.0 0.00 0.00 0.00 76 921.3
20260507050744 10 45 74.0 0.0 0.00 0.00 0.00 76 921.2
20260507050636 10 0 62.8 0.0 0.00 0.00 0.00 76 921.2
20260507050527 10 0 136.8 0.0 0.00 0.00 0.00 76 921.2
20260507050419 10 0 51.5 0.0 0.00 0.00 0.00 76 921.2
20260507050310 10 315 91.7 0.0 0.00 0.00 0.00 76 921.3
20260507050202 10 0 119.1 0.0 0.00 0.00 0.00 76 921.3
20260507050053 10 315 149.7 0.0 0.00 0.00 0.00 75 921.1
20260507045945 9 135 48.3 0.0 0.00 0.00 0.00 75 921.2
20260507045836 9 315 49.9 0.0 0.00 0.00 0.00 75 921.2
20260507045728 9 0 59.5 0.0 0.00 0.00 0.00 75 921.2
20260507045620 9 0 70.8 0.0 0.00 0.00 0.00 75 921.2
20260507045511 9 0 22.5 0.0 0.00 0.00 0.00 76 921.2
20260507045254 9 315 64.4 0.0 0.00 0.00 0.00 76 921.0
20260507045146 9 45 43.5 0.0 0.00 0.00 0.00 76 921.1
20260507045037 9 315 88.5 0.0 0.00 0.00 0.00 76 921.1
20260507044929 9 135 38.6 0.0 0.00 0.00 0.00 76 921.1
20260507044820 9 0 66.0 0.0 0.00 0.00 0.00 76 921.1
20260507044712 9 0 70.8 0.0 0.00 0.00 0.00 76 921.1
20260507044604 9 0 80.5 0.0 0.00 0.00 0.00 76 921.1
20260507044455 9 45 67.6 0.0 0.00 0.00 0.00 76 921.1
20260507044347 9 0 128.7 0.0 0.00 0.00 0.00 76 921.1
20260507044238 9 0 83.7 0.0 0.00 0.00 0.00 76 921.0
20260507044130 9 45 49.9 0.0 0.00 0.00 0.00 76 921.1
20260507044021 9 45 56.3 0.0 0.00 0.00 0.00 76 921.1
20260507043913 9 0 64.4 0.0 0.00 0.00 0.00 76 921.1
20260507043805 9 0 69.2 0.0 0.00 0.00 0.00 76 921.1
20260507043656 9 0 38.6 0.0 0.00 0.00 0.00 76 921.1
20260507043548 9 45 20.9 0.0 0.00 0.00 0.00 76 921.1
20260507043439 9 0 1.6 0.0 0.00 0.00 0.00 76 921.1
20260507043331 9 90 0.0 0.0 0.00 0.00 0.00 76 921.1
20260507043222 9 0 12.9 0.0 0.00 0.00 0.00 76 921.2
20260507043114 9 0 45.1 0.0 0.00 0.00 0.00 76 921.2
20260507043005 8 180 1.6 0.0 0.00 0.00 0.00 76 921.1
20260507042857 8 0 32.2 0.0 0.00 0.00 0.00 76 921.2
20260507042749 8 315 38.6 0.0 0.00 0.00 0.00 76 921.1
20260507042640 8 45 40.2 0.0 0.00 0.00 0.00 76 921.1
20260507042532 8 0 35.4 0.0 0.00 0.00 0.00 76 921.1
20260507042423 8 45 24.1 0.0 0.00 0.00 0.00 76 921.1
20260507042315 8 0 9.7 0.0 0.00 0.00 0.00 76 921.1
20260507042206 8 0 3.2 0.0 0.00 0.00 0.00 76 921.1
20260507042058 8 45 1.6 0.0 0.00 0.00 0.00 76 921.1
20260507041949 8 45 41.8 0.0 0.00 0.00 0.00 77 921.1
20260507041841 8 45 37.0 0.0 0.00 0.00 0.00 77 921.1
20260507041733 8 0 30.6 0.0 0.00 0.00 0.00 77 921.0
20260507041624 8 0 33.8 0.0 0.00 0.00 0.00 77 921.0
20260507041516 8 45 3.2 0.0 0.00 0.00 0.00 77 921.0
20260507041407 8 135 29.0 0.0 0.00 0.00 0.00 77 921.0
20260507041259 8 180 35.4 0.0 0.00 0.00 0.00 77 921.0
20260507041150 8 45 12.9 0.0 0.00 0.00 0.00 77 921.0
20260507041042 8 45 46.7 0.0 0.00 0.00 0.00 76 920.9
20260507040934 8 315 8.0 0.0 0.00 0.00 0.00 76 920.9
20260507040825 8 45 20.9 0.0 0.00 0.00 0.00 76 920.9
20260507040717 8 315 17.7 0.0 0.00 0.00 0.00 76 920.9
20260507040608 8 0 35.4 0.0 0.00 0.00 0.00 76 920.9
20260507040500 8 0 40.2 0.0 0.00 0.00 0.00 76 920.9
20260507040351 8 45 22.5 0.0 0.00 0.00 0.00 76 920.9
20260507040243 8 45 12.9 0.0 0.00 0.00 0.00 76 920.8
20260507040134 8 315 41.8 0.0 0.00 0.00 0.00 76 920.8
20260507040026 8 315 41.8 0.0 0.00 0.00 0.00 76 920.8
20260507035918 8 90 59.5 0.0 0.00 0.00 0.00 76 920.8
20260507035809 8 0 35.4 0.0 0.00 0.00 0.00 76 920.8
20260507035701 8 135 95.0 0.0 0.00 0.00 0.00 76 920.8
20260507035553 8 0 91.7 0.0 0.00 0.00 0.00 76 920.7
20260507035444 8 90 83.7 0.0 0.00 0.00 0.00 76 920.7
20260507035336 8 0 30.6 0.0 0.00 0.00 0.00 76 920.7
20260507035228 8 90 77.2 0.0 0.00 0.00 0.00 76 920.7
20260507035120 8 0 51.5 0.0 0.00 0.00 0.00 76 920.7
20260507035011 8 0 101.4 0.0 0.00 0.00 0.00 76 920.7
20260507034903 8 0 111.0 0.0 0.00 0.00 0.00 76 920.7
20260507034755 8 315 45.1 0.0 0.00 0.00 0.00 76 920.7
20260507034647 8 0 85.3 0.0 0.00 0.00 0.00 76 920.7
20260507034538 8 45 112.7 0.0 0.00 0.00 0.00 76 920.7
20260507034430 8 67.6 0.0 0.00 0.00 0.00 76 920.7
20260507034322 8 0 107.8 0.0 0.00 0.00 0.00 76 920.6
20260507034213 8 0 104.6 0.0 0.00 0.00 0.00 76 920.5
20260507034105 8 0 62.8 0.0 0.00 0.00 0.00 76 920.4
20260507033957 8 0 70.8 0.0 0.00 0.00 0.00 76 920.5
20260507033849 8 0 67.6 0.0 0.00 0.00 0.00 76 920.5
20260507033740 8 315 41.8 0.0 0.00 0.00 0.00 76 920.5
20260507033632 8 45 54.7 0.0 0.00 0.00 0.00 76 920.5
20260507033524 8 0 74.0 0.0 0.00 0.00 0.00 76 920.4
20260507033415 8 0 66.0 0.0 0.00 0.00 0.00 76 920.4
20260507033307 8 0 64.4 0.0 0.00 0.00 0.00 76 920.5
20260507033159 8 315 48.3 0.0 0.00 0.00 0.00 76 920.5
20260507033051 8 0 82.1 0.0 0.00 0.00 0.00 76 920.5
20260507032942 8 45 91.7 0.0 0.00 0.00 0.00 76 920.4
20260507032834 8 45 62.8 0.0 0.00 0.00 0.00 76 920.4
20260507032726 8 315 14.5 0.0 0.00 0.00 0.00 76 920.5
20260507032617 8 90 70.8 0.0 0.00 0.00 0.00 76 920.4
20260507032509 8 45 109.4 0.0 0.00 0.00 0.00 76 920.4
20260507032401 8 45 141.6 0.0 0.00 0.00 0.00 76 920.4
20260507032253 8 0 62.8 0.0 0.00 0.00 0.00 76 920.4
20260507032144 8 0 66.0 0.0 0.00 0.00 0.00 76 920.4
20260507032036 8 315 78.9 0.0 0.00 0.00 0.00 76 920.4
20260507031928 8 45 57.9 0.0 0.00 0.00 0.00 76 920.4
20260507031820 8 315 77.2 0.0 0.00 0.00 0.00 76 920.5
20260507031711 8 0 101.4 0.0 0.00 0.00 0.00 76 920.5
20260507031603 8 0 64.4 0.0 0.00 0.00 0.00 76 920.4
20260507031455 8 45 69.2 0.0 0.00 0.00 0.00 76 920.5
20260507031347 8 0 32.2 0.0 0.00 0.00 0.00 76 920.5
20260507031238 8 270 53.1 0.0 0.00 0.00 0.00 76 920.5
20260507031130 8 0 43.5 0.0 0.00 0.00 0.00 76 920.5
20260507031022 8 0 32.2 0.0 0.00 0.00 0.00 76 920.5
20260507030913 8 0 29.0 0.0 0.00 0.00 0.00 76 920.5
20260507030805 8 0 41.8 0.0 0.00 0.00 0.00 76 920.5
20260507030657 8 315 45.1 0.0 0.00 0.00 0.00 76 920.5
20260507030549 8 0 53.1 0.0 0.00 0.00 0.00 76 920.5
20260507030440 8 45 78.9 0.0 0.00 0.00 0.00 76 920.5
20260507030332 8 315 67.6 0.0 0.00 0.00 0.00 76 920.6
20260507030224 8 0 46.7 0.0 0.00 0.00 0.00 76 920.6
20260507030116 8 315 35.4 0.0 0.00 0.00 0.00 76 920.5
20260507030007 8 45 115.9 0.0 0.00 0.00 0.00 76 920.6
20260507025859 8 45 32.2 0.0 0.00 0.00 0.00 76 920.6
20260507025751 8 0 119.1 0.0 0.00 0.00 0.00 76 920.6
20260507025642 8 0 120.7 0.0 0.00 0.00 0.00 76 920.5
20260507025534 8 0 27.4 0.0 0.00 0.00 0.00 76 920.5
20260507025426 8 0 59.5 0.0 0.00 0.00 0.00 76 920.6
20260507025318 8 45 99.8 0.0 0.00 0.00 0.00 76 920.5
20260507025209 8 0 107.8 0.0 0.00 0.00 0.00 76 920.5
20260507025101 8 0 43.5 0.0 0.00 0.00 0.00 76 920.5
20260507024953 8 315 33.8 0.0 0.00 0.00 0.00 76 920.6
20260507024844 8 0 22.5 0.0 0.00 0.00 0.00 76 920.6
20260507024736 8 0 69.2 0.0 0.00 0.00 0.00 76 920.5
20260507024628 8 0 77.2 0.0 0.00 0.00 0.00 76 920.5
20260507024520 8 0 41.8 0.0 0.00 0.00 0.00 76 920.5
20260507024411 8 0 62.8 0.0 0.00 0.00 0.00 76 920.5
20260507024303 8 45 98.2 0.0 0.00 0.00 0.00 76 920.5
20260507024155 8 45 20.9 0.0 0.00 0.00 0.00 76 920.5
20260507024046 8 0 88.5 0.0 0.00 0.00 0.00 76 920.5
20260507023938 8 0 30.6 0.0 0.00 0.00 0.00 76 920.5
20260507023830 8 315 59.5 0.0 0.00 0.00 0.00 76 920.6
20260507023722 8 0 96.6 0.0 0.00 0.00 0.00 76 920.5
20260507023613 8 0 120.7 0.0 0.00 0.00 0.00 76 920.6
20260507023505 8 45 40.2 0.0 0.00 0.00 0.00 76 920.5
20260507023357 8 0 106.2 0.0 0.00 0.00 0.00 76 920.6
20260507023249 8 315 98.2 0.0 0.00 0.00 0.00 76 920.5
20260507023140 8 45 99.8 0.0 0.00 0.00 0.00 76 920.5
20260507023032 7 0 91.7 0.0 0.00 0.00 0.00 76 920.6
20260507022924 7 315 74.0 0.0 0.00 0.00 0.00 76 920.5
20260507022815 7 45 78.9 0.0 0.00 0.00 0.00 76 920.5
20260507022708 7 0 17.7 0.0 0.00 0.00 0.00 76 920.5
20260507022559 7 315 130.4 0.0 0.00 0.00 0.00 76 920.6
20260507022451 7 45 117.5 0.0 0.00 0.00 0.00 76 920.5
20260507022342 7 315 53.1 0.0 0.00 0.00 0.00 76 920.5
20260507022234 7 0 30.6 0.0 0.00 0.00 0.00 76 920.5
20260507022126 7 90 95.0 0.0 0.00 0.00 0.00 76 920.5
20260507022017 7 0 117.5 0.0 0.00 0.00 0.00 76 920.5
20260507021909 7 0 77.2 0.0 0.00 0.00 0.00 76 920.5
20260507021801 7 0 49.9 0.0 0.00 0.00 0.00 76 920.5
20260507021653 7 0 24.1 0.0 0.00 0.00 0.00 76 920.5
20260507021544 7 315 46.7 0.0 0.00 0.00 0.00 75 920.5
20260507021436 7 315 62.8 0.0 0.00 0.00 0.00 75 920.5
20260507021328 7 45 48.3 0.0 0.00 0.00 0.00 75 920.5
20260507021220 7 0 4.8 0.0 0.00 0.00 0.00 75 920.5
20260507021003 6 45 24.1 0.0 0.00 0.00 0.00 74 920.5
20260507020855 6 315 17.7 0.0 0.00 0.00 0.00 74 920.5
20260507020746 6 315 16.1 0.0 0.00 0.00 0.00 74 920.5
20260507020638 6 0 25.7 0.0 0.00 0.00 0.00 74 920.5
20260507020530 7 315 19.3 0.0 0.00 0.00 0.00 74 920.5
20260507020422 7 225 0.0 0.0 0.00 0.00 0.00 73 920.5
20260507020313 7 270 3.2 0.0 0.00 0.00 0.00 73 920.5
20260507020205 7 270 0.0 0.0 0.00 0.00 0.00 73 920.4
20260507015949 7 315 12.9 0.0 0.00 0.00 0.00 74 920.3
20260507015840 7 315 0.0 0.0 0.00 0.00 0.00 74 920.4
20260507015732 7 315 12.9 0.0 0.00 0.00 0.00 74 920.3
20260507015624 7 315 19.3 0.0 0.00 0.00 0.00 74 920.4
20260507015515 7 0 11.3 0.0 0.00 0.00 0.00 74 920.3
20260507015408 7 45 0.0 0.0 0.00 0.00 0.00 74 920.4
20260507015259 7 315 3.2 0.0 0.00 0.00 0.00 74 920.3
20260507015151 7 225 0.0 0.0 0.00 0.00 0.00 74 920.3
20260507015042 7 45 14.5 0.0 0.00 0.00 0.00 75 920.3
20260507014934 7 315 3.2 0.0 0.00 0.00 0.00 75 920.3
20260507014826 7 45 27.4 0.0 0.00 0.00 0.00 75 920.3
20260507014718 7 0 40.2 0.0 0.00 0.00 0.00 75 920.3
20260507014609 7 0 62.8 0.0 0.00 0.00 0.00 75 920.3
20260507014501 8 45 53.1 0.0 0.00 0.00 0.00 75 920.3
20260507014353 8 0 24.1 0.0 0.00 0.00 0.00 75 920.3
20260507014244 8 270 22.5 0.0 0.00 0.00 0.00 75 920.3
20260507014136 8 0 48.3 0.0 0.00 0.00 0.00 75 920.4
20260507014028 8 0 9.7 0.0 0.00 0.00 0.00 75 920.3
20260507013920 8 45 35.4 0.0 0.00 0.00 0.00 75 920.4
20260507013811 8 315 4.8 0.0 0.00 0.00 0.00 76 920.3
20260507013703 8 90 29.0 0.0 0.00 0.00 0.00 76 920.4
20260507013555 7 315 88.5 0.0 0.00 0.00 0.00 76 920.4
20260507013446 7 315 12.9 0.0 0.00 0.00 0.00 76 920.4
20260507013338 7 270 62.8 0.0 0.00 0.00 0.00 76 920.3
20260507013230 7 0 11.3 0.0 0.00 0.00 0.00 75 920.3
20260507013122 7 0 48.3 0.0 0.00 0.00 0.00 76 920.3
20260507013013 7 0 11.3 0.0 0.00 0.00 0.00 75 920.3
20260507012905 7 0 86.9 0.0 0.00 0.00 0.00 75 920.3
20260507012757 7 0 67.6 0.0 0.00 0.00 0.00 75 920.3
20260507012648 7 0 53.1 0.0 0.00 0.00 0.00 75 920.2
20260507012540 7 45 48.3 0.0 0.00 0.00 0.00 75 920.3
20260507012432 7 315 3.2 0.0 0.00 0.00 0.00 75 920.3
20260507012324 7 45 37.0 0.0 0.00 0.00 0.00 75 920.3
20260507012215 7 0 16.1 0.0 0.00 0.00 0.00 75 920.2
20260507012108 7 0 19.3 0.0 0.00 0.00 0.00 75 920.2
20260507011959 7 45 33.8 0.0 0.00 0.00 0.00 75 920.2
20260507011851 7 0 45.1 0.0 0.00 0.00 0.00 75 920.2
20260507011742 7 0 35.4 0.0 0.00 0.00 0.00 75 920.2
20260507011634 7 45 27.4 0.0 0.00 0.00 0.00 75 920.2
20260507011526 7 315 12.9 0.0 0.00 0.00 0.00 75 920.2
20260507011417 7 315 22.5 0.0 0.00 0.00 0.00 75 920.2
20260507011309 7 45 16.1 0.0 0.00 0.00 0.00 75 920.1
20260507011201 7 0 24.1 0.0 0.00 0.00 0.00 75 920.2
20260507011053 7 0 104.6 0.0 0.00 0.00 0.00 75 920.1
20260507010944 7 0 57.9 0.0 0.00 0.00 0.00 75 920.1
20260507010836 7 0 99.8 0.0 0.00 0.00 0.00 75 920.1
20260507010728 7 0 72.4 0.0 0.00 0.00 0.00 75 920.0
20260507010620 7 45 54.7 0.0 0.00 0.00 0.00 75 920.1
20260507010511 7 0 59.5 0.0 0.00 0.00 0.00 75 920.1
20260507010403 7 0 8.0 0.0 0.00 0.00 0.00 75 920.1
20260507010255 7 90 59.5 0.0 0.00 0.00 0.00 75 920.2
20260507010146 7 45 66.0 0.0 0.00 0.00 0.00 75 920.1
20260507010038 7 0 51.5 0.0 0.00 0.00 0.00 75 920.1
20260507005930 7 315 62.8 0.0 0.00 0.00 0.00 75 920.1
20260507005822 7 45 53.1 0.0 0.00 0.00 0.00 75 920.1
20260507005713 7 315 74.0 0.0 0.00 0.00 0.00 75 920.1
20260507005605 7 45 51.5 0.0 0.00 0.00 0.00 75 920.0
20260507005457 7 315 70.8 0.0 0.00 0.00 0.00 75 920.0
20260507005349 7 45 25.7 0.0 0.00 0.00 0.00 75 920.0
20260507005240 7 0 29.0 0.0 0.00 0.00 0.00 75 920.0
20260507005132 7 0 22.5 0.0 0.00 0.00 0.00 75 920.0
20260507005024 7 315 12.9 0.0 0.00 0.00 0.00 75 920.1
20260507004915 7 45 16.1 0.0 0.00 0.00 0.00 75 920.1
20260507004807 7 225 0.0 0.0 0.00 0.00 0.00 75 920.1
20260507004659 7 315 17.7 0.0 0.00 0.00 0.00 75 920.2
20260507004551 7 0 0.0 0.0 0.00 0.00 0.00 75 920.2
20260507004442 7 315 0.0 0.0 0.00 0.00 0.00 75 920.2
20260507004334 7 270 0.0 0.0 0.00 0.00 0.00 75 920.2
20260507004226 7 0 16.1 0.0 0.00 0.00 0.00 75 920.2
20260507004117 7 0 24.1 0.0 0.00 0.00 0.00 75 920.2
20260507004009 7 0 4.8 0.0 0.00 0.00 0.00 75 920.2
20260507003901 7 0 1.6 0.0 0.00 0.00 0.00 76 920.3
20260507003644 7 315 1.6 0.0 0.00 0.00 0.00 76 920.2
20260507003536 7 0 1.6 0.0 0.00 0.00 0.00 76 920.3
20260507003428 7 315 3.2 0.0 0.00 0.00 0.00 76 920.3
20260507003320 7 0 14.5 0.0 0.00 0.00 0.00 76 920.3
20260507003211 7 45 0.0 0.0 0.00 0.00 0.00 76 920.2
20260507003103 7 315 0.0 0.0 0.00 0.00 0.00 76 920.3
20260507002955 7 0 24.1 0.0 0.00 0.00 0.00 76 920.2
20260507002846 7 0 0.0 0.0 0.00 0.00 0.00 76 920.2
20260507002738 7 315 0.0 0.0 0.00 0.00 0.00 76 920.3
20260507002630 7 315 0.0 0.0 0.00 0.00 0.00 76 920.2
20260507002522 7 315 11.3 0.0 0.00 0.00 0.00 75 920.2
20260507002414 7 315 4.8 0.0 0.00 0.00 0.00 75 920.2
20260507002306 7 315 0.0 0.0 0.00 0.00 0.00 75 920.2
20260507002157 7 0 0.0 0.0 0.00 0.00 0.00 75 920.2
20260507002048 7 315 0.0 0.0 0.00 0.00 0.00 75 920.2
20260507001940 7 315 0.0 0.0 0.00 0.00 0.00 75 920.2
20260507001832 7 315 0.0 0.0 0.00 0.00 0.00 75 920.2
20260507001724 7 315 0.0 0.0 0.00 0.00 0.00 75 920.2
20260507001615 7 315 1.6 0.0 0.00 0.00 0.00 75 920.2
20260507001507 7 0 0.0 0.0 0.00 0.00 0.00 75 920.3
20260507001359 7 315 0.0 0.0 0.00 0.00 0.00 75 920.2
20260507001251 7 315 0.0 0.0 0.00 0.00 0.00 75 920.2
20260507001142 7 315 0.0 0.0 0.00 0.00 0.00 75 920.2
20260507001034 7 315 0.0 0.0 0.00 0.00 0.00 75 920.2
20260507000926 7 315 0.0 0.0 0.00 0.00 0.00 75 920.2
20260507000817 6 315 0.0 0.0 0.00 0.00 0.00 75 920.2
20260507000709 6 315 0.0 0.0 0.00 0.00 0.00 75 920.2
20260507000601 6 315 0.0 0.0 0.00 0.00 0.00 75 920.2
20260507000453 6 315 0.0 0.0 0.00 0.00 0.00 75 920.2
20260507000344 6 0 0.0 0.0 0.00 0.00 0.00 75 920.2
20260507000236 6 0 6.4 0.0 0.00 0.00 0.00 75 920.2
20260507000128 6 0 14.5 0.0 0.00 0.00 0.00 75 920.2
20260507000019 6 0 40.2 0.0 0.00 0.00 0.00 75 920.1
20260506235911 6 0 22.5 0.0 0.00 0.00 0.00 75 920.1
20260506235803 6 0 20.9 0.0 0.00 0.00 0.00 75 920.1
20260506235655 6 0 33.8 0.0 0.00 0.00 0.00 75 920.1
20260506235546 6 0 0.0 0.0 0.00 0.00 0.00 75 920.2
20260506235438 6 315 0.0 0.0 0.00 0.00 0.00 75 920.2
20260506235330 6 90 0.0 0.0 0.00 0.00 0.00 74 920.2
20260506235222 6 90 9.7 0.0 0.00 0.00 0.00 74 920.2
20260506235113 6 0 0.0 0.0 0.00 0.00 0.00 74 920.2
20260506235006 6 45 0.0 0.0 0.00 0.00 0.00 74 920.2
20260506234857 6 315 0.0 0.0 0.00 0.00 0.00 74 920.2
20260506234640 6 270 9.7 0.0 0.00 0.00 0.00 73 920.2
20260506234532 6 270 0.0 0.0 0.00 0.00 0.00 73 920.1
20260506234424 6 270 4.8 0.0 0.00 0.00 0.00 73 920.2
20260506234315 6 270 9.7 0.0 0.00 0.00 0.00 73 920.2
20260506234207 6 270 0.0 0.0 0.00 0.00 0.00 73 920.1
20260506234059 6 315 1.6 0.0 0.00 0.00 0.00 73 920.1
20260506233950 6 315 1.6 0.0 0.00 0.00 0.00 73 920.1
20260506233842 6 315 1.6 0.0 0.00 0.00 0.00 73 920.0
20260506233734 6 270 0.0 0.0 0.00 0.00 0.00 73 920.0
20260506233626 6 90 3.2 0.0 0.00 0.00 0.00 73 920.0
20260506233517 6 315 0.0 0.0 0.00 0.00 0.00 73 920.0
20260506233409 6 270 3.2 0.0 0.00 0.00 0.00 73 920.0
20260506233301 6 270 6.4 0.0 0.00 0.00 0.00 73 920.0
20260506233153 6 270 0.0 0.0 0.00 0.00 0.00 73 919.9
20260506233045 6 135 0.0 0.0 0.00 0.00 0.00 73 920.0
20260506232936 6 315 1.6 0.0 0.00 0.00 0.00 73 920.0
20260506232828 6 0 20.9 0.0 0.00 0.00 0.00 72 920.0
20260506232719 6 315 37.0 0.0 0.00 0.00 0.00 72 920.0
20260506232611 6 0 32.2 0.0 0.00 0.00 0.00 72 920.0
20260506232503 6 0 16.1 0.0 0.00 0.00 0.00 72 920.0
20260506232355 6 45 16.1 0.0 0.00 0.00 0.00 72 920.0
20260506232246 6 315 0.0 0.0 0.00 0.00 0.00 72 920.0
20260506232138 6 315 0.0 0.0 0.00 0.00 0.00 72 920.1
20260506232030 6 315 0.0 0.0 0.00 0.00 0.00 72 920.1
20260506231922 6 315 0.0 0.0 0.00 0.00 0.00 72 920.1
20260506231813 6 270 0.0 0.0 0.00 0.00 0.00 72 920.1
20260506231705 6 0 0.0 0.0 0.00 0.00 0.00 72 920.1
20260506231557 6 45 6.4 0.0 0.00 0.00 0.00 72 920.1
20260506231448 7 315 16.1 0.0 0.00 0.00 0.00 72 920.1
20260506231340 7 315 0.0 0.0 0.00 0.00 0.00 72 920.2
20260506231232 7 315 0.0 0.0 0.00 0.00 0.00 72 920.2
20260506231015 7 315 0.0 0.0 0.00 0.00 0.00 72 920.2
20260506230907 7 315 1.6 0.0 0.00 0.00 0.00 72 920.2
20260506230759 7 315 1.6 0.0 0.00 0.00 0.00 73 920.2
20260506230651 7 270 0.0 0.0 0.00 0.00 0.00 73 920.2
20260506230542 7 315 0.0 0.0 0.00 0.00 0.00 73 920.3
20260506230434 7 315 12.9 0.0 0.00 0.00 0.00 73 920.3
20260506230326 7 315 24.1 0.0 0.00 0.00 0.00 73 920.3
20260506230217 7 0 0.0 0.0 0.00 0.00 0.00 73 920.2
20260506230109 8 315 6.4 0.0 0.00 0.00 0.00 73 920.3
20260506230001 8 315 4.8 0.0 0.00 0.00 0.00 73 920.3
20260506225853 8 315 16.1 0.0 0.00 0.00 0.00 74 920.3
20260506225744 8 315 12.9 0.0 0.00 0.00 0.00 74 920.3
20260506225636 8 0 41.8 0.0 0.00 0.00 0.00 74 920.2
20260506225528 8 45 17.7 0.0 0.00 0.00 0.00 74 920.2
20260506225420 8 45 24.1 0.0 0.00 0.00 0.00 74 920.2
20260506225311 8 45 19.3 0.0 0.00 0.00 0.00 74 920.2
20260506225203 8 0 32.2 0.0 0.00 0.00 0.00 74 920.2
20260506225055 8 0 16.1 0.0 0.00 0.00 0.00 74 920.2
20260506224946 8 315 0.0 0.0 0.00 0.00 0.00 74 920.1
20260506224838 8 315 12.9 0.0 0.00 0.00 0.00 74 920.2
20260506224730 8 315 11.3 0.0 0.00 0.00 0.00 74 920.2
20260506224622 8 0 3.2 0.0 0.00 0.00 0.00 75 920.2
20260506224513 8 180 19.3 0.0 0.00 0.00 0.00 75 920.2
20260506224405 8 45 0.0 0.0 0.00 0.00 0.00 75 920.2
20260506224257 8 0 25.7 0.0 0.00 0.00 0.00 75 920.2
20260506224148 8 45 3.2 0.0 0.00 0.00 0.00 75 920.1
20260506224040 9 315 16.1 0.0 0.00 0.00 0.00 75 920.2
20260506223932 9 0 3.2 0.0 0.00 0.00 0.00 75 920.2
20260506223824 9 0 3.2 0.0 0.00 0.00 0.00 75 920.2
20260506223607 9 0 27.4 0.0 0.00 0.00 0.00 75 920.2
20260506223459 9 90 22.5 0.0 0.00 0.00 0.00 75 920.2
20260506223350 9 45 35.4 0.0 0.00 0.00 0.00 76 920.2
20260506223242 9 45 11.3 0.0 0.00 0.00 0.00 76 920.2
20260506223134 9 0 11.3 0.0 0.00 0.00 0.00 76 920.2
20260506223026 9 315 16.1 0.0 0.00 0.00 0.00 76 920.1
20260506222917 9 135 30.6 0.0 0.00 0.00 0.00 76 920.2
20260506222809 9 180 46.7 0.0 0.00 0.00 0.00 76 920.1
20260506222701 9 225 0.0 0.0 0.00 0.00 0.00 76 920.1
20260506222553 9 270 14.5 0.0 0.00 0.00 0.00 76 920.1
20260506222444 9 315 3.2 0.0 0.00 0.00 0.00 76 920.1
20260506222336 9 45 1.6 0.0 0.00 0.00 0.00 76 920.1
20260506222228 9 90 9.7 0.0 0.00 0.00 0.00 76 920.1
20260506222120 9 0 17.7 0.0 0.00 0.00 0.00 76 920.1
20260506222011 9 180 14.5 0.0 0.00 0.00 0.00 75 920.1
20260506221903 9 90 14.5 0.0 0.00 0.00 0.00 75 920.1
20260506221755 9 135 27.4 0.0 0.00 0.00 0.00 75 920.0
20260506221646 9 135 33.8 0.0 0.00 0.00 0.00 75 920.0
20260506221538 9 315 41.8 0.0 0.00 0.00 0.00 75 920.0
20260506221430 9 135 14.5 0.0 0.00 0.00 0.00 75 920.0
20260506221322 9 45 61.2 0.0 0.00 0.00 0.00 75 920.0
20260506221213 9 45 22.5 0.0 0.00 0.00 0.00 75 919.9
20260506221105 10 45 66.0 0.0 0.00 0.00 0.00 75 920.0
20260506220957 10 45 32.2 0.0 0.00 0.00 0.00 75 920.0
20260506220848 10 0 90.1 0.0 0.00 0.00 0.00 75 919.9
20260506220740 10 0 41.8 0.0 0.00 0.00 0.00 76 919.9
20260506220632 10 45 40.2 0.0 0.00 0.00 0.00 76 919.9
20260506220524 10 0 25.7 0.0 0.00 0.00 0.00 76 919.9
20260506220415 10 0 17.7 0.0 0.00 0.00 0.00 76 919.9
20260506220307 10 0 32.2 0.0 0.00 0.00 0.00 76 919.9
20260506220200 10 0 64.4 0.0 0.00 0.00 0.00 76 919.8
20260506220050 10 45 11.3 0.0 0.00 0.00 0.00 76 919.8
20260506215942 10 0 90.1 0.0 0.00 0.00 0.00 76 919.9
20260506215834 10 135 38.6 0.0 0.00 0.00 0.00 76 919.8
20260506215726 10 315 20.9 0.0 0.00 0.00 0.00 76 919.8
20260506215617 10 45 43.5 0.0 0.00 0.00 0.00 76 919.8
20260506215509 10 45 83.7 0.0 0.00 0.00 0.00 76 919.8
20260506215401 10 315 53.1 0.0 0.00 0.00 0.00 76 919.8
20260506215253 10 315 25.7 0.0 0.00 0.00 0.00 75 919.8
20260506215144 10 315 62.8 0.0 0.00 0.00 0.00 75 919.8
20260506215036 10 0 20.9 0.0 0.00 0.00 0.00 75 919.7
20260506214928 10 315 120.7 0.0 0.00 0.00 0.00 75 919.7
20260506214819 10 0 90.1 0.0 0.00 0.00 0.00 75 919.7
20260506214711 10 45 56.3 0.0 0.00 0.00 0.00 75 919.6
20260506214603 10 45 77.2 0.0 0.00 0.00 0.00 75 919.7
20260506214455 10 0 72.4 0.0 0.00 0.00 0.00 76 919.6
20260506214346 10 0 45.1 0.0 0.00 0.00 0.00 76 919.7
20260506214238 10 45 16.1 0.0 0.00 0.00 0.00 75 919.7
20260506214130 10 45 66.0 0.0 0.00 0.00 0.00 76 919.7
20260506214021 10 315 20.9 0.0 0.00 0.00 0.00 76 919.7
20260506213913 10 315 32.2 0.0 0.00 0.00 0.00 76 919.7
20260506213805 10 45 27.4 0.0 0.00 0.00 0.00 76 919.6
20260506213657 10 90 43.5 0.0 0.00 0.00 0.00 76 919.6
20260506213548 10 0 8.0 0.0 0.00 0.00 0.00 76 919.6
20260506213440 10 45 22.5 0.0 0.00 0.00 0.00 76 919.7
20260506213332 10 45 20.9 0.0 0.00 0.00 0.00 76 919.7
20260506213224 10 45 16.1 0.0 0.00 0.00 0.00 76 919.6
20260506213115 10 0 51.5 0.0 0.00 0.00 0.00 76 919.7
20260506213007 10 0 29.0 0.0 0.00 0.00 0.00 76 919.7
20260506212900 10 315 14.5 0.0 0.00 0.00 0.00 76 919.7
20260506212750 10 45 14.5 0.0 0.00 0.00 0.00 76 919.7
20260506212642 10 45 4.8 0.0 0.00 0.00 0.00 76 919.6
20260506212534 10 0 45.1 0.0 0.00 0.00 0.00 76 919.7
20260506212426 10 90 45.1 0.0 0.00 0.00 0.00 76 919.7
20260506212317 10 315 33.8 0.0 0.00 0.00 0.00 76 919.6
20260506212209 10 45 48.3 0.0 0.00 0.00 0.00 76 919.6
20260506212101 10 45 51.5 0.0 0.00 0.00 0.00 76 919.6
20260506211953 10 45 74.0 0.0 0.00 0.00 0.00 76 919.6
20260506211844 10 0 69.2 0.0 0.00 0.00 0.00 76 919.6
20260506211736 10 45 56.3 0.0 0.00 0.00 0.00 76 919.6
20260506211628 10 0 12.9 0.0 0.00 0.00 0.00 76 919.6
20260506211519 10 45 17.7 0.0 0.00 0.00 0.00 76 919.6
20260506211411 10 315 0.0 0.0 0.00 0.00 0.00 75 919.7
20260506211303 10 45 12.9 0.0 0.00 0.00 0.00 75 919.6
20260506211155 10 0 25.7 0.0 0.00 0.00 0.00 75 919.6
20260506211046 10 0 38.6 0.0 0.00 0.00 0.00 75 919.5
20260506210938 10 90 57.9 0.0 0.00 0.00 0.00 75 919.5
20260506210830 10 0 70.8 0.0 0.00 0.00 0.00 75 919.5
20260506210722 10 0 74.0 0.0 0.00 0.00 0.00 76 919.4
20260506210613 10 0 49.9 0.0 0.00 0.00 0.00 76 919.4
20260506210505 10 45 86.9 0.0 0.00 0.00 0.00 76 919.4
20260506210357 10 0 91.7 0.0 0.00 0.00 0.00 76 919.4
20260506210248 10 315 16.1 0.0 0.00 0.00 0.00 75 919.4
20260506210140 10 90 90.1 0.0 0.00 0.00 0.00 75 919.5
20260506210032 10 315 48.3 0.0 0.00 0.00 0.00 75 919.4
20260506205924 10 45 6.4 0.0 0.00 0.00 0.00 75 919.4
20260506205815 10 315 27.4 0.0 0.00 0.00 0.00 75 919.4
20260506205707 10 0 27.4 0.0 0.00 0.00 0.00 75 919.4
20260506205559 10 315 20.9 0.0 0.00 0.00 0.00 75 919.4
20260506205450 10 45 66.0 0.0 0.00 0.00 0.00 75 919.3
20260506205342 10 45 38.6 0.0 0.00 0.00 0.00 75 919.3
20260506205234 10 315 4.8 0.0 0.00 0.00 0.00 75 919.3
20260506205126 10 315 0.0 0.0 0.00 0.00 0.00 75 919.3
20260506205018 10 270 41.8 0.0 0.00 0.00 0.00 75 919.3
20260506204909 10 0 78.9 0.0 0.00 0.00 0.00 75 919.3
20260506204801 10 90 24.1 0.0 0.00 0.00 0.00 75 919.2
20260506204652 10 270 40.2 0.0 0.00 0.00 0.00 75 919.2
20260506204544 10 45 80.5 0.0 0.00 0.00 0.00 75 919.2
20260506204436 10 45 24.1 0.0 0.00 0.00 0.00 75 919.2
20260506204328 10 0 72.4 0.0 0.00 0.00 0.00 75 919.2
20260506204219 10 45 86.9 0.0 0.00 0.00 0.00 75 919.1
20260506204111 10 0 35.4 0.0 0.00 0.00 0.00 75 919.2
20260506204003 10 180 35.4 0.0 0.00 0.00 0.00 75 919.2
20260506203855 10 45 48.3 0.0 0.00 0.00 0.00 75 919.1
20260506203746 10 45 66.0 0.0 0.00 0.00 0.00 74 919.1
20260506203638 10 270 74.0 0.0 0.00 0.00 0.00 74 919.1
20260506203530 10 0 93.3 0.0 0.00 0.00 0.00 74 919.1
20260506203421 10 45 12.9 0.0 0.00 0.00 0.00 74 919.1
20260506203313 10 315 49.9 0.0 0.00 0.00 0.00 74 919.1
20260506203205 10 45 11.3 0.0 0.00 0.00 0.00 74 919.1
20260506203057 10 0 66.0 0.0 0.00 0.00 0.00 74 919.0
20260506202948 10 0 69.2 0.0 0.00 0.00 0.00 74 919.0
20260506202840 11 45 61.2 0.0 0.00 0.00 0.00 74 919.0
20260506202732 11 45 16.1 0.0 0.00 0.00 0.00 74 918.9
20260506202624 11 180 30.6 0.0 0.00 0.00 0.00 74 919.0
20260506202515 11 0 3.2 0.0 0.00 0.00 0.00 74 918.9
20260506202407 11 45 30.6 0.0 0.00 0.00 0.00 74 919.0
20260506202259 11 315 3.2 0.0 0.00 0.00 0.00 74 918.9
20260506202150 11 90 33.8 0.0 0.00 0.00 0.00 74 918.9
20260506202042 11 0 29.0 0.0 0.00 0.00 0.00 74 918.9
20260506201934 11 45 115.9 0.0 0.00 0.00 0.00 74 918.9
20260506201826 11 0 123.9 0.0 0.00 0.00 0.00 74 918.9
20260506201717 11 45 48.3 0.0 0.00 0.00 0.00 74 918.8
20260506201609 11 315 51.5 0.0 0.00 0.00 0.00 74 918.9
20260506201501 11 45 22.5 0.0 0.00 0.00 0.00 74 918.9
20260506201352 11 90 127.1 0.0 0.00 0.00 0.00 74 918.9
20260506201244 11 0 101.4 0.0 0.00 0.00 0.00 75 918.8
20260506201136 11 0 61.2 0.0 0.00 0.00 0.00 75 918.8
20260506201028 11 315 45.1 0.0 0.00 0.00 0.00 75 918.8
20260506200919 11 45 120.7 0.0 0.00 0.00 0.00 75 918.8
20260506200811 11 0 90.1 0.0 0.00 0.00 0.00 75 918.7
20260506200703 11 0 53.1 0.0 0.00 0.00 0.00 75 918.8
20260506200555 11 0 86.9 0.0 0.00 0.00 0.00 75 918.7
20260506200446 11 315 33.8 0.0 0.00 0.00 0.00 75 918.7
20260506200338 11 45 70.8 0.0 0.00 0.00 0.00 75 918.7
20260506200230 11 45 82.1 0.0 0.00 0.00 0.00 75 918.7
20260506200121 11 0 29.0 0.0 0.00 0.00 0.00 75 918.7
20260506200013 11 90 93.3 0.0 0.00 0.00 0.00 75 918.7
20260506195905 12 315 25.7 0.0 0.00 0.00 0.00 75 918.7
20260506195757 12 315 41.8 0.0 0.00 0.00 0.00 75 918.8
20260506195649 12 0 45.1 0.0 0.00 0.00 0.00 75 918.7
20260506195540 12 90 14.5 0.0 0.00 0.00 0.00 75 918.7
20260506195432 12 135 11.3 0.0 0.00 0.00 0.00 75 918.7
20260506195323 12 180 38.6 0.0 0.00 0.00 0.00 75 918.7
20260506195215 12 315 20.9 0.0 0.00 0.00 0.00 75 918.7
20260506195107 12 270 6.4 0.0 0.00 0.00 0.00 75 918.7
20260506194959 12 0 24.1 0.0 0.00 0.00 0.00 75 918.7
20260506194850 12 315 33.8 0.0 0.00 0.00 0.00 75 918.7
20260506194742 12 315 37.0 0.0 0.00 0.00 0.00 75 918.7
20260506194634 12 0 6.4 0.0 0.00 0.00 0.00 75 918.6
20260506194526 12 135 33.8 0.0 0.00 0.00 0.00 75 918.7
20260506194417 12 315 16.1 0.0 0.00 0.00 0.00 75 918.7
20260506194309 12 90 11.3 0.0 0.00 0.00 0.00 74 918.6
20260506194201 12 45 0.0 0.0 0.00 0.00 0.00 74 918.7
20260506194052 12 90 1.6 0.0 0.00 0.00 0.00 74 918.6
20260506193944 12 315 8.0 0.0 0.00 0.00 0.00 74 918.7
20260506193836 12 315 12.9 0.0 0.00 0.00 0.00 74 918.6
20260506193728 12 45 20.9 0.0 0.00 0.00 0.00 74 918.6
20260506193619 12 90 59.5 0.0 0.00 0.00 0.00 74 918.6
20260506193511 12 315 38.6 0.0 0.00 0.00 0.00 74 918.5
20260506193403 12 180 33.8 0.0 0.00 0.00 0.00 74 918.5
20260506193254 12 135 8.0 0.0 0.00 0.00 0.00 74 918.6
20260506193146 12 135 9.7 0.0 0.00 0.00 0.00 74 918.5
20260506193038 12 180 17.7 0.0 0.00 0.00 0.00 74 918.6
20260506192930 12 90 0.0 0.0 0.00 0.00 0.00 74 918.6
20260506192821 12 90 20.9 0.0 0.00 0.00 0.00 74 918.6
20260506192713 12 90 0.0 0.0 0.00 0.00 0.00 75 918.5
20260506192605 12 45 17.7 0.0 0.00 0.00 0.00 75 918.5
20260506192457 12 180 38.6 0.0 0.00 0.00 0.00 75 918.5
20260506192348 13 315 12.9 0.0 0.00 0.00 0.00 75 918.4
20260506192240 13 45 11.3 0.0 0.00 0.00 0.00 75 918.4
20260506192132 13 315 24.1 0.0 0.00 0.00 0.00 75 918.4
20260506192023 13 180 11.3 0.0 0.00 0.00 0.00 75 918.4
20260506191915 13 315 12.9 0.0 0.00 0.00 0.00 75 918.3
20260506191807 13 180 78.9 0.0 0.00 0.00 0.00 75 918.4
20260506191659 13 180 56.3 0.0 0.00 0.00 0.00 75 918.3
20260506191550 13 180 20.9 0.0 0.00 0.00 0.00 75 918.3
20260506191442 13 135 11.3 0.0 0.00 0.00 0.00 75 918.3
20260506191334 13 270 12.9 0.0 0.00 0.00 0.00 75 918.2
20260506191225 13 180 24.1 0.0 0.00 0.00 0.00 75 918.2
20260506191117 13 135 6.4 0.0 0.00 0.00 0.00 75 918.2
20260506191009 13 135 17.7 0.0 0.00 0.00 0.00 75 918.2
20260506190901 13 135 35.4 0.0 0.00 0.00 0.00 75 918.2
20260506190752 13 135 32.2 0.0 0.00 0.00 0.00 75 918.1
20260506190644 13 90 29.0 0.0 0.00 0.00 0.00 75 918.1
20260506190536 13 0 37.0 0.0 0.00 0.00 0.00 75 918.0
20260506190428 13 90 32.2 0.0 0.00 0.00 0.00 75 918.0
20260506190319 13 45 24.1 0.0 0.00 0.00 0.00 75 918.0
20260506190211 13 135 37.0 0.0 0.00 0.00 0.00 75 918.0
20260506185954 13 315 24.1 0.0 0.00 0.00 0.00 75 918.0
20260506185846 13 270 35.4 0.0 0.00 0.00 0.00 75 918.0
20260506185738 13 90 27.4 0.0 0.00 0.00 0.00 75 918.0
20260506185630 13 315 56.3 0.0 0.00 0.00 0.00 75 918.0
20260506185521 13 0 30.6 0.0 0.00 0.00 0.00 75 918.0
20260506185307 13 270 0.0 0.0 0.00 0.00 0.00 75 917.9
20260506185157 13 315 1.6 0.0 0.00 0.00 0.00 75 917.9
20260506185048 13 315 24.1 0.0 0.00 0.00 0.00 75 917.8
20260506184940 13 0 20.9 0.0 0.00 0.00 0.00 75 917.8
20260506184832 13 0 45.1 0.0 0.00 0.00 0.00 74 917.7
20260506184723 13 90 4.8 0.0 0.00 0.00 0.00 74 917.7
20260506184507 13 270 3.2 0.0 0.00 0.00 0.00 74 917.7
20260506184359 13 315 8.0 0.0 0.00 0.00 0.00 74 917.6
20260506184250 13 315 8.0 0.0 0.00 0.00 0.00 74 917.6
20260506184142 13 315 1.6 0.0 0.00 0.00 0.00 74 917.5
20260506184034 13 315 16.1 0.0 0.00 0.00 0.00 74 917.5
20260506183926 13 315 17.7 0.0 0.00 0.00 0.00 74 917.5
20260506183817 13 0 1.6 0.0 0.00 0.00 0.00 74 917.5
20260506183709 13 270 27.4 0.0 0.00 0.00 0.00 74 917.4
20260506183601 13 90 14.5 0.0 0.00 0.00 0.00 74 917.5
20260506183452 14 315 20.9 0.0 0.00 0.00 0.00 74 917.4
20260506183344 14 270 43.5 0.0 0.00 0.00 0.00 74 917.4
20260506183236 14 180 12.9 0.0 0.00 0.00 0.00 74 917.4
20260506183128 14 270 11.3 0.0 0.00 0.00 0.00 74 917.3
20260506183020 14 270 25.7 0.0 0.00 0.00 0.00 74 917.3
20260506182911 14 225 16.1 0.0 0.00 0.00 0.00 74 917.3
20260506182803 14 180 22.5 0.0 0.00 0.00 0.00 74 917.3
20260506182654 14 180 3.2 0.0 0.00 0.00 0.00 74 917.2
20260506182546 14 180 11.3 0.0 0.00 0.00 0.00 74 917.2
20260506182438 14 180 16.1 0.0 0.00 0.00 0.00 74 917.2
20260506182329 14 180 20.9 0.0 0.00 0.00 0.00 74 917.2
20260506182221 15 135 12.9 0.0 0.00 0.00 0.00 74 917.2
20260506182112 15 135 24.1 0.0 0.00 0.00 0.00 74 917.2
20260506181856 15 90 0.0 0.0 0.00 0.00 0.00 74 917.2
20260506181747 15 0 0.0 0.0 0.00 0.00 0.00 74 917.2
20260506181640 15 225 4.8 0.0 0.00 0.00 0.00 74 917.2
20260506181530 15 135 14.5 0.0 0.00 0.00 0.00 74 917.1
20260506181422 15 225 37.0 0.0 0.00 0.00 0.00 74 917.1